GFSCGP_925_temp_063.txt.gz
Temp
23 21 20 22 22 24 26 25 25 26 27 28 24 24 24 25 25 25 24 25 26 26 26 26 25 25 24 23 23 24 24 24 24 24 24 24 25 25 24 24 24 24 24 24
21 21 22 25 25 25 25 25 24 25 28 26 25 24 24 24 25 25 24 24 25 26 26 25 25 24 23 23 23 23 24 24 24 25 25 25 25 24 24 24 24 24 24 24
21 24 25 25 25 25 25 23 24 25 26 25 23 24 23 23 24 25 24 25 25 26 26 25 25 24 23 23 23 24 24 25 25 25 25 25 24 24 23 24 24 24 24 24
23 25 25 25 25 24 23 24 26 26 26 25 25 24 24 23 22 23 24 24 24 26 27 25 25 24 24 23 23 24 24 25 25 25 25 25 25 24 24 25 25 24 24 24
23 25 24 24 25 25 24 26 25 26 26 25 26 24 22 22 22 23 23 24 25 26 27 26 25 25 24 23 24 23 24 24 25 25 25 25 25 25 25 25 25 24 24 24
24 25 25 24 26 26 27 27 24 21 21 22 24 24 22 23 24 24 24 24 25 26 26 26 25 25 25 24 23 23 24 25 25 25 25 25 25 25 25 24 25 25 24 24
24 25 26 27 26 26 25 22 21 23 21 22 24 24 25 24 24 25 24 24 25 24 25 26 25 25 25 24 23 23 23 23 25 25 25 26 25 25 25 25 25 25 24 24
20 22 25 25 26 25 23 22 20 23 21 23 23 25 26 24 26 25 26 26 26 24 24 26 25 25 25 24 23 23 22 23 24 25 25 26 26 25 25 25 25 25 25 25
19 22 22 25 24 24 25 23 22 19 20 22 22 25 26 24 24 24 25 25 24 25 25 26 26 25 25 24 24 23 23 23 24 25 25 25 26 25 25 25 25 25 25 25
19 21 20 22 23 22 23 23 23 19 21 23 22 23 22 22 23 23 24 24 25 25 25 24 26 26 25 25 24 23 23 23 25 25 25 26 26 26 25 25 25 25 25 25
17 17 20 20 19 20 18 17 16 18 18 19 20 21 24 21 22 22 22 24 25 24 23 23 25 27 25 25 24 24 23 23 23 23 25 25 25 26 26 25 25 25 25 25
16 13 17 18 17 20 19 17 14 16 20 17 19 20 21 21 22 23 22 22 24 24 24 22 22 22 23 24 24 24 23 23 23 23 24 24 25 25 25 26 25 25 25 25
17 13 15 18 17 16 16 17 16 13 13 16 18 19 22 20 21 21 22 21 21 21 20 20 19 19 21 23 24 23 23 23 23 22 22 23 23 24 25 25 26 25 25 25
15 11 13 13 15 15 16 17 17 14 14 15 17 17 19 19 20 20 20 21 20 20 19 18 18 19 22 23 24 25 24 23 23 22 22 22 23 23 25 25 25 26 26 25
12 12 13 14 15 16 17 16 17 17 17 17 17 17 19 17 18 18 19 19 19 19 18 17 17 18 21 21 21 23 24 24 23 23 22 22 22 23 23 24 25 26 26 26
10 12 13 13 14 15 16 16 17 17 18 18 17 18 17 17 17 16 16 17 17 18 18 17 17 16 19 19 20 21 23 25 24 23 23 22 22 22 22 23 24 24 25 25
11 10 10 12 11 14 14 15 16 17 18 17 17 16 14 14 15 14 13 14 15 16 16 16 16 16 15 18 20 20 21 22 24 23 22 22 22 22 22 23 23 23 23 23
10 10 9 10 11 10 14 12 14 16 14 12 13 13 12 12 13 14 13 13 14 14 14 16 17 17 16 18 19 21 20 21 22 23 23 23 22 22 22 22 22 22 22 23
8 8 8 9 7 11 14 11 11 11 11 10 10 10 11 11 12 13 12 12 12 13 14 15 16 16 16 18 20 20 20 20 21 22 23 23 23 22 22 21 21 21 22 22
9 7 8 9 9 10 11 11 12 11 10 9 9 9 9 9 10 13 11 11 11 12 13 14 14 15 17 18 19 19 19 20 21 21 22 22 23 23 22 22 22 22 21 22
7 6 7 11 11 11 10 10 11 11 10 8 9 8 8 8 10 9 9 9 10 11 12 13 14 15 17 18 18 18 18 19 20 19 20 21 23 22 22 22 22 22 22 22
8 7 4 8 8 8 9 10 10 8 7 9 9 8 8 8 8 9 9 9 9 10 11 12 13 14 16 18 16 17 17 18 19 19 19 21 21 22 23 23 22 22 22 21
8 6 5 7 7 8 8 7 9 9 8 8 8 8 8 7 8 9 9 9 9 9 10 10 11 12 15 16 18 16 17 18 17 17 19 19 20 20 21 23 23 23 22 22
9 7 5 6 8 8 9 8 8 9 8 8 8 8 7 7 8 8 9 8 8 9 9 10 10 11 13 15 17 18 17 17 16 16 16 17 18 19 20 21 23 23 23 23
6 8 9 8 7 7 8 7 7 8 8 8 8 8 7 7 7 8 9 9 10 9 10 10 10 11 12 14 15 17 17 16 15 15 15 15 17 18 20 21 24 24 24 23
7 7 7 6 7 7 7 8 8 7 8 8 7 7 7 7 7 7 7 8 8 9 8 9 9 10 12 13 14 15 17 15 14 13 15 15 15 17 19 21 22 24 24 24

GFSCGP_925_temp_066.txt.gz
Temp
21 19 19 20 22 24 25 25 25 25 27 26 25 23 23 23 24 24 24 24 25 24 25 24 24 23 23 23 23 22 23 23 23 23 22 23 23 24 24 24 24 23 23 23
20 19 21 23 23 23 24 25 24 25 26 25 25 24 23 23 24 24 24 24 25 24 24 24 24 24 23 23 24 23 23 23 23 23 23 23 24 24 24 24 24 24 23 24
20 23 23 24 24 24 24 23 24 25 26 25 24 23 24 24 23 24 24 24 24 25 23 24 24 24 23 22 23 24 24 24 23 23 23 23 24 24 24 24 24 24 24 24
22 24 24 23 24 23 23 23 25 26 25 23 25 23 23 23 22 23 23 23 23 24 25 24 25 23 23 23 23 24 24 24 23 23 23 24 25 24 24 24 24 24 24 24
22 23 24 23 24 24 23 24 25 25 24 24 24 23 23 21 22 22 23 23 24 24 25 24 24 23 23 22 23 23 24 24 24 23 24 24 24 24 25 24 24 24 24 24
23 25 24 24 24 24 25 24 20 19 20 21 23 23 23 22 22 24 24 24 24 24 25 25 24 24 23 23 22 22 23 24 24 23 23 24 25 25 24 24 24 24 24 24
23 24 25 25 25 25 23 21 20 21 20 21 22 23 24 22 23 23 23 24 24 25 25 25 24 23 23 23 22 22 23 23 23 24 23 24 25 25 25 25 25 25 24 24
20 22 23 24 25 23 21 21 19 22 19 22 22 24 24 23 22 22 23 24 24 24 25 25 24 24 23 23 23 22 22 22 23 24 24 24 24 25 25 25 25 25 25 25
19 21 21 23 23 23 23 22 21 18 18 20 21 23 25 23 23 23 22 23 23 24 24 24 25 24 24 23 23 22 22 23 23 24 24 24 24 24 25 25 25 25 25 25
18 20 20 21 21 20 21 20 21 18 21 23 21 21 20 20 21 21 21 21 22 23 23 24 25 24 24 24 23 23 23 23 23 24 24 25 25 25 25 25 25 25 25 25
16 17 20 18 16 16 17 16 15 16 17 19 19 19 22 19 20 20 21 21 21 23 23 23 22 25 24 24 23 22 22 22 22 22 23 23 25 25 25 25 25 25 25 25
15 15 15 16 17 17 16 16 13 17 20 15 17 19 20 18 19 19 20 20 19 19 20 21 21 21 23 24 24 23 22 22 22 23 23 23 25 25 25 25 26 25 25 25
17 12 14 17 16 16 15 16 15 12 12 14 17 18 20 18 18 18 19 19 18 18 18 18 19 19 20 22 23 23 23 22 22 22 22 22 23 24 24 25 25 26 25 25
14 10 14 15 16 14 16 16 16 13 13 14 16 17 18 16 16 16 17 18 18 17 17 16 16 17 19 20 21 22 23 23 23 22 22 22 23 24 24 25 25 25 25 25
11 12 13 13 15 16 16 16 17 17 16 16 16 18 18 14 14 14 15 16 16 16 17 16 16 15 16 16 19 20 21 22 23 23 22 22 23 23 23 23 24 25 25 25
9 11 13 13 13 14 15 15 16 16 17 17 16 17 13 13 14 13 13 14 14 14 15 16 16 16 15 14 15 18 19 21 22 22 22 22 22 22 23 23 23 24 24 24
10 9 9 12 11 13 12 13 15 16 14 13 15 13 11 11 12 12 12 12 12 13 13 14 15 15 15 14 15 16 19 19 21 22 22 22 22 22 22 22 22 23 23 24
9 8 7 9 10 12 12 11 12 14 12 10 11 10 10 10 10 11 12 11 11 11 12 12 13 14 15 15 16 17 18 19 20 20 22 21 22 22 22 21 22 22 22 22
7 7 7 8 6 11 11 10 10 10 12 9 9 9 9 10 10 12 11 10 10 9 10 11 12 12 13 15 17 17 18 19 19 20 21 22 21 21 21 21 21 21 21 22
8 6 7 6 10 11 10 11 11 10 10 8 8 8 8 9 8 12 10 10 9 9 9 9 10 11 12 14 16 17 17 18 19 19 19 20 21 21 21 21 21 21 21 21
5 6 7 9 9 10 9 10 11 10 10 7 8 9 9 8 9 9 9 9 9 9 9 9 9 10 11 13 14 15 16 17 18 18 19 19 20 20 22 21 21 21 21 21
6 4 3 8 8 7 9 10 11 8 7 7 8 9 8 9 9 9 9 8 9 9 9 9 9 9 10 11 12 14 15 17 17 18 18 19 19 20 20 21 21 21 21 21
7 6 5 6 6 7 8 8 8 8 7 8 8 9 8 8 8 8 8 8 8 9 10 9 9 9 9 10 11 13 14 16 17 18 19 18 18 18 19 20 20 20 20 21
8 5 4 6 8 6 7 7 7 7 7 8 9 8 8 7 8 8 8 8 8 9 9 9 9 9 9 10 11 12 14 16 16 16 18 18 18 17 17 18 19 20 21 21
6 7 9 8 7 7 7 7 7 7 7 7 8 8 6 7 7 7 7 7 8 8 8 8 9 9 9 9 10 10 12 14 14 15 15 16 16 15 16 18 19 20 20 22
6 7 6 6 6 7 8 8 8 7 7 7 8 7 7 7 6 6 6 6 6 7 8 8 8 8 8 8 9 9 11 13 13 13 13 14 15 16 15 16 18 20 21 21

GFSCGP_925_temp_069.txt.gz
Temp
24 24 25 26 26 26 27 28 28 28 29 29 29 29 27 26 26 25 25 25 26 26 26 25 23 24 23 22 22 21 21 21 21 21 22 22 22 22 23 23 23 23 23 23
23 24 25 26 26 26 27 27 28 28 28 29 29 29 27 27 27 26 26 26 27 27 27 25 24 25 24 23 22 21 21 22 21 21 21 22 22 22 23 24 24 23 23 23
24 26 25 26 26 26 27 27 27 28 29 28 27 28 27 26 26 26 26 27 27 27 27 27 26 25 24 24 22 22 22 22 22 21 21 22 22 23 23 23 24 23 23 23
25 26 25 26 26 27 27 27 28 28 28 29 28 29 27 27 25 25 26 26 27 27 27 27 26 25 25 24 23 22 22 22 22 23 22 22 24 24 24 24 23 23 23 23
25 25 26 26 27 27 27 27 28 28 28 28 28 30 28 26 26 25 26 27 27 28 28 28 27 26 25 25 24 23 22 22 22 23 22 22 23 24 24 23 24 23 24 24
26 26 27 27 27 28 28 27 26 26 28 28 29 30 28 28 26 27 27 27 27 28 28 28 27 26 25 25 24 23 22 23 22 23 23 22 23 23 24 24 23 23 23 24
25 26 27 27 27 26 27 28 26 27 27 28 26 29 26 26 26 25 25 28 27 28 28 28 27 27 26 25 24 23 22 22 22 22 22 23 22 23 24 24 24 24 24 23
25 24 25 25 27 27 27 28 28 26 27 29 26 29 26 26 26 25 25 26 28 27 28 28 27 27 26 25 24 23 22 22 22 22 22 23 22 23 24 24 24 24 24 24
24 24 24 24 24 25 25 26 28 26 24 29 28 27 26 26 25 24 24 26 27 27 28 28 27 27 26 25 24 24 23 22 22 22 22 22 22 22 23 24 24 24 25 24
21 23 22 22 23 24 25 24 27 26 26 27 25 25 25 23 22 22 22 23 25 27 27 28 28 26 26 26 25 24 23 23 23 23 22 22 22 22 22 23 24 24 25 25
20 23 22 23 20 20 24 24 23 26 25 28 26 25 23 21 20 19 19 20 22 25 26 27 27 26 26 26 25 24 24 23 23 22 23 23 22 22 22 22 24 24 25 25
18 21 20 20 20 19 21 20 21 27 24 23 27 23 22 21 20 19 17 18 19 20 21 22 24 24 25 24 25 25 25 24 23 23 22 22 23 23 22 22 23 24 25 25
19 19 20 21 21 20 20 20 20 20 22 22 27 23 21 21 19 19 18 16 17 17 18 19 18 17 20 23 24 24 24 24 23 22 22 22 23 23 22 22 24 24 24 24
18 17 20 23 20 20 20 20 20 22 24 22 22 22 21 19 19 18 18 17 16 16 16 16 16 16 15 16 18 21 22 24 24 23 22 22 22 22 23 23 23 24 25 24
18 18 17 17 18 19 19 19 20 21 20 22 21 21 19 18 18 17 18 18 17 16 15 15 15 15 15 14 15 17 19 19 22 24 23 23 22 22 23 23 23 23 23 24
16 17 17 16 17 18 18 18 19 19 20 20 21 19 16 16 17 17 17 17 17 16 16 14 14 14 14 13 13 15 18 18 18 20 22 23 23 22 22 22 23 22 22 23
16 16 16 17 16 17 18 17 18 18 17 19 20 16 15 16 15 15 16 16 15 15 15 15 14 13 13 13 13 14 16 17 18 19 20 22 22 22 22 22 22 22 22 22
15 14 14 16 16 16 15 15 15 16 14 15 16 14 13 13 14 15 16 14 14 13 13 14 14 13 13 12 13 14 15 16 17 19 20 21 22 22 22 21 21 21 22 21
14 15 13 15 16 15 15 14 14 16 14 12 13 13 13 13 15 16 14 14 13 13 12 12 12 12 12 13 13 13 14 15 17 18 20 20 22 22 22 22 22 21 21 21
13 13 15 13 15 16 15 14 13 14 16 11 12 12 12 12 16 18 14 12 12 11 11 11 12 12 13 13 12 12 12 14 16 17 18 19 19 20 21 21 21 22 21 21
13 13 14 14 15 15 14 13 13 14 14 11 11 11 11 11 12 12 12 12 11 11 10 11 11 12 12 12 12 12 11 12 15 16 17 18 19 19 20 20 21 21 21 22
13 13 12 11 12 13 13 12 13 13 11 11 11 11 10 11 11 11 12 11 11 10 10 10 11 12 12 11 11 12 12 11 13 14 16 18 17 18 20 20 20 21 21 21
11 11 11 12 13 13 12 13 13 12 12 11 11 11 11 11 11 11 11 10 10 10 10 10 11 11 11 11 11 11 12 11 11 13 16 16 17 17 18 19 20 20 20 21
11 10 10 10 13 12 12 11 11 11 11 11 11 11 11 10 10 10 10 9 9 8 8 9 9 10 11 10 10 11 11 11 11 12 14 15 16 17 17 18 20 21 22 21
12 10 11 11 12 11 11 12 12 11 11 11 11 11 11 10 10 10 10 8 8 7 7 7 8 9 10 10 10 10 10 11 11 11 13 14 15 16 17 17 18 20 20 21
11 11 11 12 13 13 13 12 11 11 11 11 11 11 11 10 10 9 9 8 7 7 7 7 7 8 8 9 9 9 9 10 10 11 12 14 14 15 15 17 17 18 19 20

GFSCGP_925_temp_072.txt.gz
Temp
28 28 29 31 32 33 34 33 33 33 33 34 33 33 31 30 30 27 24 28 29 30 29 28 27 25 27 26 25 24 24 23 23 23 24 25 25 25 25 25 24 23 24 23
27 28 31 31 31 30 32 32 33 32 33 33 33 34 32 32 31 30 26 26 30 30 30 29 27 27 27 26 25 24 24 23 23 24 25 25 26 26 26 25 24 24 23 23
29 30 30 29 30 30 31 32 33 33 32 33 33 33 32 31 31 29 29 30 30 30 30 30 28 27 28 27 25 24 24 23 23 25 24 23 24 24 24 25 25 24 23 23
29 30 29 29 30 31 31 32 32 31 32 33 34 34 33 31 30 27 27 30 31 31 31 30 29 28 29 28 26 25 24 23 23 23 24 24 26 27 27 26 26 25 23 23
29 29 28 29 30 31 32 31 31 32 32 32 32 33 31 32 31 26 27 28 31 29 29 31 30 29 29 28 27 26 24 24 24 23 24 24 25 27 26 27 25 25 23 24
30 30 30 30 31 30 31 30 31 31 32 31 33 34 33 32 30 30 31 30 30 32 30 30 30 30 29 28 28 27 25 23 23 23 23 24 25 26 27 26 24 24 24 24
28 28 30 31 30 30 30 31 30 30 30 32 34 33 30 30 29 29 29 30 31 32 32 31 31 30 29 29 28 27 25 24 23 23 23 24 24 24 25 25 26 27 27 26
27 27 29 30 30 29 30 32 32 29 31 32 32 32 29 29 29 29 30 31 32 32 33 32 31 30 29 29 28 27 26 24 24 24 24 24 24 25 25 25 27 27 27 27
28 27 28 28 29 30 30 30 34 32 32 34 32 29 29 29 28 27 26 30 31 32 32 32 31 30 30 29 28 27 27 25 25 25 24 24 24 24 26 26 25 26 26 27
28 26 27 27 28 29 30 32 30 31 30 30 32 31 29 27 25 25 22 22 28 30 31 32 31 30 29 29 28 27 27 26 25 25 25 25 24 24 24 24 24 25 26 25
26 27 26 27 27 29 29 29 30 32 32 32 31 30 27 25 23 22 22 20 21 21 23 23 26 29 29 29 29 28 27 27 26 26 26 25 25 25 24 24 24 24 25 25
24 28 26 26 24 25 27 28 29 30 29 31 32 26 25 25 22 19 19 19 19 19 19 19 17 16 21 28 28 28 28 28 27 27 26 25 25 25 25 24 25 24 24 25
22 24 25 24 25 25 26 26 27 28 30 30 31 26 25 24 23 18 18 17 18 18 18 17 16 14 14 17 19 26 28 28 28 26 25 24 25 25 25 25 25 24 24 24
22 23 22 25 26 27 25 25 26 28 30 30 30 24 24 23 23 23 19 17 17 17 17 17 15 14 13 14 15 18 22 25 27 27 26 25 24 24 25 25 25 25 24 24
24 24 23 22 23 24 25 25 25 26 27 28 27 26 24 23 22 22 22 21 18 17 17 17 16 15 14 13 13 14 17 19 21 22 26 26 24 24 24 25 25 24 24 24
23 22 23 22 22 23 23 23 23 24 25 26 27 23 22 22 22 22 21 21 20 19 17 17 17 16 15 15 13 13 14 17 18 20 22 23 25 25 24 23 23 24 24 24
21 22 22 23 21 22 23 24 23 24 23 25 25 23 21 21 20 20 20 20 19 18 18 19 17 16 15 15 16 15 14 16 17 17 20 21 22 24 24 24 24 23 23 24
20 20 21 23 21 21 20 20 21 23 21 22 20 19 19 18 19 20 20 18 18 18 17 17 18 17 16 15 14 14 14 15 16 16 17 19 22 23 23 23 23 23 23 24
20 20 20 20 22 21 19 19 20 20 19 18 19 18 19 19 20 19 18 18 17 17 17 16 16 16 16 17 16 15 14 13 14 15 16 17 17 21 22 23 23 23 23 23
19 19 19 19 19 20 21 18 18 19 21 17 17 17 18 19 21 19 17 17 17 16 15 15 15 15 16 16 16 16 17 15 13 13 14 16 17 17 20 21 22 22 22 22
18 18 17 19 18 20 19 18 18 18 18 16 16 16 16 17 17 16 16 16 15 15 14 14 14 15 15 15 15 15 16 16 15 13 13 14 17 18 19 19 21 21 21 21
17 16 16 18 17 16 18 17 17 17 16 17 16 16 15 15 15 15 15 15 14 14 13 13 13 14 14 14 14 15 15 14 14 14 13 12 15 18 18 19 19 20 21 21
14 16 15 17 17 17 17 18 16 17 16 16 16 15 15 15 15 15 15 14 13 12 12 11 11 11 12 13 13 13 14 13 13 13 14 14 13 16 18 18 19 19 21 22
16 16 13 14 18 17 17 16 16 16 16 16 16 15 15 15 15 14 15 14 13 12 11 10 10 10 10 11 12 12 13 13 13 13 14 15 15 15 17 18 21 21 20 24
17 16 15 15 16 16 16 17 16 15 15 15 15 15 15 14 14 14 14 13 13 12 11 10 10 9 9 10 10 10 11 11 12 13 13 15 16 16 18 18 20 21 21 21
17 16 14 15 18 17 18 17 16 15 15 15 15 14 14 14 14 13 13 13 11 11 10 9 10 9 8 9 9 9 9 9 10 11 13 15 16 17 18 19 19 20 20 20

GFSCGP_925_temp_075.txt.gz
Temp
30 31 31 33 34 36 37 36 36 37 37 37 36 32 33 32 31 30 26 25 30 30 31 30 30 29 29 28 27 26 26 25 25 25 26 27 26 26 26 25 25 24 24 24
31 30 34 35 35 35 36 37 37 36 36 37 36 36 34 33 33 31 27 25 29 30 31 31 30 29 28 28 27 26 26 25 25 26 27 28 27 27 26 26 26 25 25 24
31 33 34 34 34 34 35 36 37 35 35 36 36 36 34 34 34 31 28 29 29 30 30 31 30 29 29 28 27 26 25 25 24 26 26 26 27 26 26 26 27 26 24 25
32 34 33 33 33 34 34 36 37 36 35 34 36 35 35 34 34 30 28 30 30 30 31 31 30 29 28 29 27 26 25 25 24 25 26 26 26 27 27 27 27 26 25 25
31 32 32 31 32 34 34 36 35 36 35 36 36 35 30 34 33 31 30 31 31 31 31 30 30 30 29 29 28 26 25 25 25 25 25 26 26 27 27 26 25 26 25 25
32 33 33 32 34 34 35 34 34 35 35 34 36 36 32 33 28 32 31 28 31 32 31 29 30 29 29 30 29 27 25 25 25 25 24 25 26 26 27 25 26 26 26 26
30 31 33 33 33 34 34 33 32 32 33 34 36 36 33 33 33 34 32 31 32 30 32 30 28 30 29 30 30 29 26 25 25 25 25 25 25 26 26 26 27 27 26 27
30 29 32 33 33 32 33 34 34 31 33 35 37 35 32 32 32 32 33 34 33 33 32 32 32 29 29 30 30 30 27 26 25 25 25 25 25 26 26 26 27 27 25 24
31 31 33 32 34 34 32 32 36 36 37 36 36 32 32 32 31 28 28 33 34 33 31 32 32 31 29 30 30 30 28 27 26 26 25 25 25 25 27 27 26 27 27 26
30 29 31 31 31 32 32 34 33 34 33 33 35 32 32 30 29 27 25 26 26 23 21 20 24 29 30 30 30 30 29 27 27 27 26 26 25 25 25 26 26 27 27 27
30 30 29 30 30 31 31 32 33 35 35 34 34 31 31 28 27 25 21 22 23 20 20 20 18 18 21 22 29 30 29 29 27 27 27 27 26 26 25 26 26 26 26 26
29 29 29 29 31 30 31 33 33 32 32 34 35 28 29 26 24 22 19 19 20 19 16 17 16 16 15 17 18 23 30 30 29 28 28 27 27 27 27 26 26 25 25 26
27 29 28 28 29 30 29 31 32 34 34 33 33 27 28 24 22 20 19 19 18 19 19 16 16 14 13 14 18 19 22 25 30 29 29 28 28 27 27 27 26 26 25 25
23 28 27 26 29 30 29 30 30 31 32 32 33 27 27 26 22 19 19 19 19 18 18 17 15 15 14 13 13 16 18 20 22 24 29 28 27 27 26 26 26 26 25 25
27 25 26 26 27 29 30 29 29 29 31 32 28 27 27 26 25 23 20 19 19 18 18 18 18 16 15 14 13 12 15 17 18 19 23 24 27 26 25 26 26 26 26 25
27 25 25 25 25 26 27 28 27 29 30 30 29 26 27 26 25 24 24 22 20 19 20 19 18 17 17 16 16 15 15 16 16 17 19 22 24 24 25 25 25 26 26 25
25 26 25 25 25 24 24 26 27 28 29 29 29 26 25 25 24 24 24 22 21 21 20 21 20 19 18 18 17 17 16 15 16 16 17 18 20 23 24 24 25 25 25 25
24 24 25 26 26 22 24 24 27 27 27 26 25 25 25 24 23 24 23 22 21 21 21 21 21 20 18 18 17 17 18 17 16 16 15 16 17 19 21 23 23 23 24 24
24 24 23 23 25 25 23 23 23 24 23 24 24 23 23 23 23 21 21 21 20 20 20 19 19 19 19 19 18 18 18 17 16 16 15 15 15 17 18 19 21 23 24 24
24 23 23 23 22 24 23 23 23 25 23 22 23 22 23 23 24 22 20 20 19 19 18 18 18 18 19 18 18 18 19 18 19 17 16 15 14 15 18 19 19 19 22 24
21 21 20 22 22 24 22 22 22 21 21 21 22 21 21 22 20 19 19 18 18 17 17 16 17 17 17 17 17 17 17 18 17 16 17 16 16 15 17 19 19 19 19 21
21 19 19 21 22 20 22 21 21 20 20 20 20 20 20 19 19 19 18 18 17 17 16 15 15 15 15 15 15 16 16 16 16 15 15 16 16 16 17 17 18 19 20 20
18 20 17 20 20 20 21 21 20 21 20 20 20 19 19 19 19 18 18 17 17 16 15 15 14 14 14 13 13 14 14 14 14 15 15 15 15 16 17 16 18 20 21 21
20 20 17 19 21 20 20 20 20 20 20 19 19 19 19 18 18 18 18 17 16 16 15 14 13 14 13 13 13 12 13 13 13 13 14 14 16 16 17 18 17 19 23 24
20 20 19 19 20 20 20 20 19 19 19 19 18 18 18 17 17 17 17 16 15 15 14 13 12 12 12 12 11 12 12 11 12 12 13 14 15 17 18 19 20 20 21 22
21 20 18 17 20 20 20 20 20 19 18 18 18 17 17 17 17 16 16 15 14 14 14 12 12 11 12 11 11 11 10 10 10 11 12 13 14 16 18 19 20 21 21 20

GFSCGP_925_temp_078.txt.gz
Temp
30 30 31 33 34 35 36 36 36 35 35 37 32 26 26 32 32 30 30 28 30 31 31 31 31 30 29 28 27 27 27 26 25 25 26 26 25 25 25 25 24 24 25 24
31 30 33 35 35 35 35 36 37 33 33 33 29 28 27 30 31 30 31 27 27 30 29 30 30 30 29 28 27 26 26 25 25 25 26 26 26 25 25 25 25 25 24 24
32 33 34 35 35 35 35 36 37 34 29 32 33 30 27 31 32 32 30 28 28 29 29 30 30 28 28 28 27 26 26 25 25 26 26 26 25 25 25 24 25 25 25 25
32 35 34 34 34 35 34 37 37 35 34 34 37 33 34 33 30 30 29 29 28 30 29 28 29 28 28 26 27 26 25 24 25 25 26 27 26 25 26 26 26 25 25 25
32 33 34 33 34 36 35 37 37 35 35 36 36 35 34 32 29 29 29 29 30 30 30 30 31 29 27 27 27 26 25 24 25 25 25 26 26 26 27 26 25 25 25 26
33 35 34 34 35 35 36 36 36 36 35 34 36 36 32 28 25 26 30 30 28 31 31 31 30 29 28 27 28 26 25 25 25 25 25 25 26 25 24 24 26 25 25 25
32 33 34 34 33 34 35 34 33 32 33 33 37 36 32 27 24 22 32 31 26 27 29 31 30 29 29 28 28 26 25 25 24 24 25 24 25 25 24 24 26 26 26 26
30 30 33 34 33 33 34 34 33 31 32 34 36 35 32 31 25 25 34 33 32 31 30 26 31 29 29 28 28 27 25 24 24 24 25 25 25 25 25 24 25 27 27 26
29 31 34 34 34 35 34 33 36 35 36 35 35 32 32 32 30 31 29 27 24 22 21 23 29 30 27 28 29 28 25 25 25 25 25 25 25 25 27 27 27 26 26 25
30 29 33 34 35 35 32 35 33 34 31 31 33 31 31 30 29 28 27 24 22 20 19 19 20 23 25 27 29 29 26 26 25 25 25 25 24 25 26 26 27 27 25 24
30 30 30 32 31 32 32 31 32 34 34 33 31 28 32 29 28 25 24 22 19 18 17 17 16 17 19 22 24 22 27 26 26 26 26 26 25 25 25 25 26 27 26 26
30 30 28 31 33 33 33 33 33 33 32 34 26 24 28 27 25 23 22 21 19 16 16 16 15 14 14 16 18 19 20 22 27 27 27 26 26 26 25 25 26 26 26 26
27 28 28 29 31 32 31 32 33 34 34 33 27 28 27 24 23 21 21 21 20 17 16 16 15 14 13 13 15 17 17 20 20 23 27 27 27 26 26 25 25 26 25 25
25 27 27 23 26 30 30 31 32 32 32 32 28 26 24 23 22 21 20 20 20 19 17 15 15 15 15 13 13 14 16 19 17 19 23 25 27 27 27 27 26 25 25 25
27 26 28 28 28 29 31 31 32 31 31 30 27 27 25 23 22 21 21 21 20 20 19 19 17 16 16 15 14 13 13 15 16 17 19 21 20 26 27 26 26 26 26 25
28 26 26 26 28 28 28 31 31 31 31 31 28 27 27 25 23 22 22 22 21 21 20 20 20 19 18 17 16 16 15 14 15 15 16 18 19 23 24 25 25 25 25 25
26 26 24 24 27 27 26 28 29 29 30 26 25 25 26 25 25 24 23 23 22 21 21 21 20 19 19 19 18 18 17 17 15 15 15 16 17 19 20 22 24 25 25 25
25 24 25 24 25 23 27 29 28 28 29 28 27 26 26 25 25 25 23 22 22 22 21 21 21 20 19 19 18 18 19 18 18 17 16 16 17 17 18 19 20 22 23 24
26 25 24 23 19 23 25 25 26 26 26 27 27 26 26 25 24 22 22 22 21 21 21 20 20 20 20 20 19 18 19 19 19 18 17 17 16 16 17 17 18 19 20 21
25 24 23 24 23 23 24 25 26 26 24 25 25 25 24 24 23 22 21 22 21 20 19 19 19 20 19 18 19 18 19 19 19 17 17 17 17 16 16 18 18 19 19 20
22 22 22 23 23 23 23 24 24 22 23 24 25 24 24 23 21 21 21 20 19 19 18 17 17 17 16 16 16 17 17 18 17 16 16 16 16 16 17 18 18 18 19 19
22 21 21 22 22 21 24 23 22 21 22 23 22 21 21 20 20 20 20 19 18 18 17 17 17 16 15 15 15 15 15 15 14 14 15 15 15 16 16 16 17 18 18 19
19 21 19 21 20 21 22 22 22 22 21 21 21 21 21 20 20 19 19 19 18 17 17 16 16 15 15 14 13 14 13 13 13 13 13 14 14 14 15 16 17 18 18 20
22 22 20 20 21 21 21 22 22 21 21 21 21 21 21 20 20 19 19 18 17 16 16 15 14 14 14 14 13 13 12 12 12 12 12 13 14 14 15 15 17 18 19 20
21 22 20 20 21 21 21 21 21 21 21 21 21 20 20 20 19 19 18 17 16 16 15 14 13 13 13 13 12 12 12 11 11 11 11 12 13 14 15 16 17 18 19 20
22 20 19 18 21 21 21 22 21 20 20 20 19 19 19 18 18 18 17 16 15 15 15 14 13 12 12 12 11 11 11 10 9 10 10 11 11 12 13 14 14 16 17 18

GFSCGP_925_temp_081.txt.gz
Temp
28 25 24 26 28 30 31 31 32 34 32 26 24 23 25 25 24 29 30 30 29 28 30 29 29 28 28 27 28 26 25 25 26 26 25 25 25 25 24 24 23 25 25 24
27 25 27 30 31 31 31 31 32 32 31 26 25 24 24 26 25 30 29 28 29 28 28 28 29 28 27 27 27 26 26 26 26 26 25 25 25 25 24 24 24 24 25 24
26 28 30 31 31 32 31 30 31 30 29 29 28 26 24 24 29 29 28 28 29 28 27 27 28 28 26 27 27 26 26 25 25 26 25 25 25 25 24 24 24 24 25 24
28 30 31 31 31 31 29 32 34 31 29 27 27 24 25 27 28 28 28 26 27 27 28 27 28 27 26 26 27 26 25 25 26 25 25 25 25 24 24 25 25 24 25 25
28 29 30 31 31 32 31 33 34 31 29 30 27 27 26 27 27 25 27 26 28 28 28 28 27 27 26 26 26 26 25 25 26 25 25 25 25 25 24 25 24 25 25 25
29 32 31 31 33 33 34 33 32 31 30 29 29 29 26 26 27 27 22 23 27 27 26 26 28 27 26 26 26 26 25 25 25 25 25 25 25 25 25 24 25 25 25 26
29 30 31 32 31 32 32 29 26 28 26 29 30 31 26 25 25 24 23 23 24 28 26 27 27 27 26 25 26 25 25 24 25 25 25 25 25 25 26 25 25 25 25 25
26 27 30 32 31 29 29 28 25 28 27 28 31 26 24 26 25 25 26 25 24 25 23 25 27 27 26 26 25 25 25 24 24 24 25 25 25 25 25 25 25 24 25 25
27 28 31 32 33 31 29 28 30 29 28 28 26 26 25 24 24 24 22 22 20 21 20 22 22 24 26 26 26 25 24 24 24 24 24 25 25 24 25 25 26 26 26 25
28 25 28 31 32 31 29 31 28 27 28 29 27 26 23 23 24 21 19 19 18 18 19 19 18 18 21 23 25 25 24 24 24 24 24 25 25 25 25 25 25 25 25 25
27 26 27 30 29 28 29 28 28 27 27 26 25 23 22 22 21 19 18 17 17 16 16 16 16 17 19 19 20 22 23 24 25 25 25 25 25 25 25 25 26 26 26 25
25 26 24 27 29 32 30 29 27 24 26 23 23 22 22 21 21 19 17 17 16 16 15 15 14 14 16 17 18 19 19 20 20 22 25 26 25 25 25 25 26 26 26 25
22 23 23 25 27 30 29 29 29 27 27 26 23 22 21 19 20 19 18 17 17 15 15 15 14 13 14 15 18 18 19 20 19 21 21 24 25 25 26 26 25 25 25 25
23 24 23 21 23 25 25 27 28 27 25 24 25 21 21 20 19 18 18 18 17 16 15 15 14 14 13 13 14 15 16 18 18 19 20 20 22 24 26 26 25 26 25 25
24 23 24 25 26 26 26 27 29 27 28 25 22 22 20 19 19 20 19 19 18 18 17 16 15 15 15 15 15 16 16 17 17 19 19 19 21 22 21 23 24 25 25 25
24 21 25 23 26 26 26 27 29 29 26 24 24 22 21 20 19 20 20 20 18 17 18 18 17 17 16 16 16 16 16 15 15 16 18 19 18 21 19 21 19 24 25 25
23 21 20 22 24 25 24 25 26 25 26 25 21 21 21 20 20 20 20 20 19 18 17 17 17 18 18 18 17 17 17 17 17 16 16 18 18 18 18 20 19 22 24 24
21 21 20 19 20 21 24 25 26 25 26 25 23 22 22 22 21 20 19 18 18 18 18 17 19 19 19 18 18 18 18 18 17 17 17 17 15 17 17 18 19 19 20 21
22 21 20 17 17 20 23 25 24 25 24 25 24 23 23 21 20 18 19 18 17 17 18 19 19 19 18 17 18 18 19 18 17 17 16 16 17 16 17 18 18 18 18 19
21 20 18 19 19 19 22 23 24 24 20 24 22 22 22 21 17 16 18 18 17 17 18 17 17 16 16 16 16 16 16 15 15 15 15 16 16 16 16 17 17 18 18 18
19 18 18 18 18 20 21 23 24 21 20 22 22 21 21 16 16 16 16 17 17 17 17 17 16 15 15 14 15 14 14 13 13 14 14 14 14 15 15 15 16 16 17 18
18 17 15 18 19 18 20 21 20 19 20 18 18 18 17 16 17 16 16 15 17 16 17 16 15 15 14 13 13 13 13 13 13 12 12 13 13 13 14 14 15 16 17 17
16 18 14 17 16 19 19 19 21 19 18 19 18 17 17 17 16 16 15 15 16 16 15 15 14 14 13 13 13 12 12 12 11 11 11 12 12 12 13 14 15 16 16 17
19 20 15 17 20 19 19 21 21 20 20 20 18 18 18 16 16 15 14 15 15 15 14 13 13 13 13 12 12 11 11 10 10 10 10 10 11 12 12 12 13 14 15 16
18 20 18 17 19 20 21 19 19 20 20 20 18 18 19 16 16 15 14 14 15 15 14 13 13 12 12 11 11 10 10 9 9 9 9 9 9 9 10 11 12 12 13 13
19 19 15 14 17 17 18 18 18 17 18 18 18 18 18 17 15 16 13 15 15 14 13 13 12 12 11 10 10 10 9 9 8 8 8 8 8 7 8 9 9 10 11 12

GFSCGP_925_temp_084.txt.gz
Temp
26 24 23 25 24 26 27 29 30 30 28 24 24 23 23 25 25 27 28 28 28 28 27 27 25 25 24 25 25 25 25 25 25 24 24 24 25 25 24 24 24 24 24 24
24 23 25 26 27 27 27 28 29 30 28 25 24 24 24 24 24 26 28 28 27 27 27 27 25 25 25 25 26 26 26 25 25 25 24 24 24 24 24 24 24 24 24 24
23 25 27 27 27 27 27 27 29 28 27 26 25 25 24 25 24 25 27 28 27 28 26 26 26 26 26 25 26 26 25 25 26 25 25 24 24 24 24 24 24 24 24 24
25 27 28 27 27 27 25 28 31 28 26 25 27 24 24 24 25 25 25 27 26 28 25 25 26 25 26 26 26 26 25 25 25 25 25 25 25 24 24 24 24 24 24 24
25 27 27 27 28 28 28 29 30 29 26 25 26 25 24 24 24 24 23 24 24 27 25 25 26 25 25 26 26 26 25 25 25 24 25 25 25 24 24 24 24 24 24 24
26 28 27 27 29 29 31 31 30 27 26 25 27 25 24 25 25 26 24 24 25 25 25 25 25 25 25 26 25 26 25 25 25 25 25 24 25 25 25 25 24 24 24 25
26 27 28 29 29 28 30 25 24 25 25 25 26 26 26 26 26 26 25 26 26 26 24 25 25 25 24 25 25 25 25 25 25 25 25 24 24 24 25 25 25 24 24 25
23 25 28 30 28 28 27 25 23 27 24 27 28 26 24 22 25 23 23 23 25 24 23 23 24 25 24 24 24 24 25 25 25 25 24 24 24 24 25 25 25 25 24 25
24 25 28 29 31 29 28 26 26 27 25 26 23 23 23 21 20 20 20 19 19 20 20 21 20 22 24 24 24 25 25 25 25 25 24 24 24 24 25 25 25 25 25 25
25 24 26 29 30 30 27 28 27 22 26 27 23 22 21 21 18 18 18 18 17 17 17 18 18 19 21 23 23 23 24 25 25 24 24 24 24 25 25 25 25 24 25 25
22 22 24 27 27 27 26 26 24 23 22 24 22 21 22 19 18 16 16 16 16 16 16 16 17 18 20 20 21 22 22 23 24 24 24 24 24 24 25 25 25 25 25 25
23 20 22 25 26 26 27 27 23 24 26 22 20 21 21 18 17 16 16 16 16 15 15 15 14 16 18 18 19 20 19 21 22 23 23 24 25 25 24 24 24 25 25 25
22 20 20 22 24 23 24 25 24 22 20 23 22 19 18 18 17 17 15 16 15 15 15 14 14 14 15 16 17 19 19 18 20 21 22 23 25 25 25 25 25 25 25 25
21 19 21 20 23 23 24 24 24 23 21 22 20 18 17 17 17 17 16 16 16 15 15 14 14 14 14 14 15 17 19 20 20 19 20 20 20 23 24 24 25 25 25 25
21 21 24 24 24 24 24 25 25 24 24 24 19 19 17 17 17 17 16 17 16 16 16 15 15 15 14 14 14 15 17 18 17 18 20 19 19 19 20 22 23 23 23 24
18 20 22 22 24 23 23 24 24 26 25 21 19 17 18 17 18 17 18 18 18 17 17 17 16 16 15 14 14 15 16 16 17 18 19 19 19 18 19 20 21 22 22 23
19 17 17 20 20 24 21 22 23 23 24 21 19 18 18 18 19 19 19 19 18 18 18 17 17 16 16 16 16 16 16 16 16 16 16 17 18 18 19 19 19 20 21 22
18 17 15 17 18 20 22 23 24 22 21 20 19 19 19 19 18 17 18 17 17 16 17 17 17 17 17 17 17 17 17 16 16 16 16 16 16 17 18 18 18 18 19 19
17 15 16 17 16 18 23 23 23 22 20 20 19 19 19 18 18 16 17 16 15 15 15 15 15 15 16 16 16 16 15 15 15 15 15 15 15 16 16 16 16 17 18 18
17 14 15 15 18 19 20 22 22 23 20 20 20 19 19 19 16 16 15 15 15 15 15 15 15 15 15 14 15 14 13 13 13 13 14 14 14 15 15 15 15 16 16 17
14 14 15 15 16 18 19 20 22 18 18 19 19 19 19 16 16 14 14 14 15 15 15 15 15 14 14 13 14 12 12 12 12 12 13 13 13 13 14 14 15 15 16 17
15 12 11 14 15 16 18 19 19 17 16 16 16 16 14 15 15 15 14 13 14 14 14 14 13 13 13 13 13 12 11 11 11 11 11 11 12 12 12 13 14 14 15 15
14 14 13 14 13 14 17 18 18 17 16 16 15 16 16 16 15 14 13 13 13 13 13 13 13 12 12 12 11 10 10 10 10 10 10 10 10 11 11 12 12 12 13 13
17 15 12 14 17 18 19 19 18 18 17 16 16 15 16 14 14 14 12 12 12 13 13 13 12 11 11 11 10 10 9 9 9 9 8 8 8 9 9 10 10 10 11 11
14 17 15 14 15 18 18 18 17 18 17 17 16 16 15 14 14 13 12 11 12 13 13 13 12 11 10 10 10 9 9 9 8 8 7 7 7 7 8 8 8 9 9 10
15 15 12 12 14 14 14 17 16 16 17 16 16 16 15 14 12 13 12 12 12 12 12 12 12 11 10 10 9 9 9 8 8 7 7 7 7 7 7 7 7 7 8 8

GFSCGP_925_temp_087.txt.gz
Temp
24 23 22 24 24 26 26 27 27 29 28 26 26 24 24 24 25 27 28 27 27 27 25 25 24 24 23 24 24 24 24 24 24 24 24 24 24 24 24 24 24 24 24 24
22 22 24 25 25 26 27 27 28 25 25 25 24 25 24 24 24 26 27 27 26 26 25 24 24 24 23 24 24 24 24 24 24 25 25 24 24 24 24 24 24 24 24 24
22 25 26 27 26 26 26 26 28 26 24 24 24 24 24 24 23 24 25 26 26 26 25 24 24 23 23 24 24 24 25 25 24 24 24 24 23 24 24 24 24 24 24 24
24 25 27 26 26 25 25 26 29 26 25 25 24 24 23 24 23 23 24 25 26 25 25 24 24 24 24 24 24 24 25 25 25 24 24 25 25 24 24 24 24 24 24 23
24 26 26 25 25 26 25 28 29 27 24 24 25 24 24 23 23 23 23 24 25 25 25 25 25 24 24 24 24 25 25 25 25 25 25 25 24 24 24 24 24 24 24 23
25 27 25 26 27 27 28 29 25 23 22 24 24 25 23 23 25 24 24 25 25 26 25 25 25 24 23 23 23 25 25 25 25 25 25 25 25 24 24 24 24 24 24 23
24 26 27 28 27 27 26 24 23 23 23 24 23 24 24 21 25 25 24 24 25 23 23 24 23 23 23 24 23 24 25 24 24 24 24 25 25 24 24 25 24 24 24 24
22 24 26 27 26 26 24 24 22 25 22 25 24 25 22 20 22 23 22 22 23 22 22 23 23 23 22 23 23 24 24 24 24 24 24 24 25 24 25 25 24 25 24 24
21 23 27 28 28 27 26 25 24 23 23 23 22 21 22 21 18 19 20 20 19 19 20 21 22 23 22 23 23 24 24 24 24 24 24 24 24 24 24 25 24 24 25 25
23 23 25 27 29 27 26 25 25 21 25 25 22 22 21 21 19 18 18 18 18 18 17 18 19 21 22 22 23 23 23 23 24 24 24 24 24 24 24 24 24 24 25 24
21 21 24 25 24 26 25 25 21 21 21 22 21 21 21 19 18 16 17 17 17 17 17 17 17 19 19 21 23 22 22 22 23 24 23 23 23 24 24 24 24 24 24 24
21 18 21 25 24 23 23 24 22 23 24 19 19 20 19 17 16 16 15 16 16 16 15 15 16 16 18 19 21 21 21 20 20 21 23 22 23 23 24 24 24 24 24 25
23 18 19 22 22 22 23 23 23 18 18 20 22 20 18 17 16 15 15 15 16 15 15 15 15 15 16 17 18 19 19 20 20 20 20 21 22 22 22 23 24 24 24 24
20 18 20 20 22 22 23 22 24 21 20 20 20 19 17 16 15 15 15 15 15 15 15 14 14 14 15 16 17 18 18 19 20 20 18 21 21 20 20 21 22 23 23 24
20 20 22 22 22 22 22 23 22 23 23 24 20 18 18 16 15 15 15 16 16 16 16 15 14 14 14 15 16 17 17 18 19 19 18 19 19 20 20 20 20 21 22 22
17 20 21 20 24 22 22 23 22 22 20 18 17 16 16 16 15 15 16 16 16 16 16 16 16 15 14 14 14 15 16 16 17 17 17 19 19 19 19 19 20 21 21 22
17 17 17 20 18 22 20 22 21 22 20 18 19 17 16 16 16 16 16 16 17 17 17 17 16 16 15 15 15 15 15 15 16 16 16 16 16 17 18 18 19 19 20 20
17 15 13 18 19 18 20 23 22 20 19 18 17 17 17 17 16 16 17 18 18 17 17 17 15 15 15 15 15 15 15 15 15 14 15 15 15 15 16 16 17 17 19 20
14 13 14 16 16 18 22 22 23 22 19 18 17 17 17 16 16 15 16 16 16 14 14 13 14 14 14 14 14 14 14 14 14 14 14 14 14 14 15 16 16 16 17 17
14 12 14 14 17 19 19 21 20 22 19 18 18 17 17 17 15 14 14 14 13 13 14 13 14 14 14 14 14 14 13 13 12 12 13 13 14 14 14 15 15 16 16 17
13 12 13 14 15 16 18 19 19 21 18 18 18 18 17 17 15 14 13 13 13 13 13 13 14 13 13 13 14 12 12 11 11 12 12 12 13 12 13 13 14 15 16 17
15 12 9 12 14 16 18 18 21 17 15 16 18 18 18 13 14 13 13 12 12 12 12 13 12 12 12 12 13 11 10 10 11 11 11 11 11 11 12 12 13 13 14 14
13 14 12 13 12 14 14 18 17 15 15 15 14 14 14 14 14 14 12 11 12 12 12 12 12 11 11 11 12 10 9 10 10 10 10 10 10 10 10 11 11 11 11 11
16 13 11 14 16 17 18 17 17 16 16 14 14 15 15 15 15 13 12 11 11 11 11 12 11 10 10 10 10 10 9 9 9 9 8 8 9 9 9 9 9 9 9 9
13 14 13 13 15 16 17 17 16 17 15 15 14 15 14 14 13 12 10 11 11 11 11 11 11 10 9 10 9 9 9 9 8 8 7 7 7 7 8 8 8 8 8 8
13 14 12 12 13 14 14 16 16 15 15 14 14 14 14 15 13 12 11 11 11 11 11 11 10 10 9 9 9 9 9 8 8 7 7 7 7 7 7 6 7 7 7 7

GFSCGP_925_temp_090.txt.gz
Temp
23 21 21 21 24 24 24 24 24 28 25 25 24 23 24 24 25 25 26 25 25 25 25 24 24 24 23 23 24 23 23 23 23 23 23 23 23 23 23 23 23 23 23 24
21 21 23 23 24 25 26 26 24 23 25 24 21 23 24 24 24 26 26 26 26 25 24 23 23 23 23 24 24 23 23 23 24 24 24 24 23 23 23 23 23 23 23 24
21 24 24 25 25 25 25 25 26 25 23 23 23 23 23 23 24 23 25 26 26 25 23 23 22 22 23 23 23 23 24 24 24 24 24 24 23 23 23 23 23 23 23 23
24 25 25 25 25 24 25 25 28 24 24 24 24 24 22 23 23 23 23 25 25 25 24 23 23 22 22 23 24 23 24 24 24 24 24 24 24 24 24 24 24 23 23 23
23 24 25 25 25 25 25 26 28 25 23 23 23 24 24 23 23 23 23 24 25 24 24 23 24 23 23 23 23 23 24 24 23 24 24 24 24 24 24 24 24 23 23 23
24 25 25 25 25 25 25 27 23 22 21 23 23 24 23 21 23 24 24 24 24 24 23 24 24 24 23 23 23 23 24 24 24 24 24 24 24 24 24 24 23 24 23 23
24 25 26 26 26 26 25 22 23 22 22 22 21 24 24 21 21 23 24 23 24 24 23 23 23 22 22 23 23 23 24 24 24 24 24 24 24 24 24 24 24 24 23 24
21 23 24 25 25 24 22 22 21 23 21 23 22 24 23 20 20 22 23 22 22 20 21 22 22 22 22 23 23 23 23 24 24 24 24 24 24 24 24 24 24 24 24 24
20 23 25 26 25 26 24 23 23 21 21 22 21 22 21 20 20 20 19 19 19 20 21 21 21 22 21 22 22 23 23 23 24 24 23 23 24 24 24 24 24 24 24 24
22 23 24 26 26 25 24 23 23 20 23 24 21 21 21 20 19 19 19 19 18 18 18 19 19 21 21 21 22 22 23 22 22 23 23 23 23 24 24 24 24 24 24 23
20 21 24 24 23 24 24 23 19 19 20 20 21 21 20 20 19 18 18 18 17 17 17 17 17 19 20 21 21 22 22 22 23 21 22 23 23 23 23 23 24 24 23 23
20 18 20 23 23 22 23 22 20 21 22 18 19 22 18 17 16 17 17 17 16 16 16 16 16 17 19 20 20 21 22 22 21 21 22 23 22 22 22 22 23 23 24 24
21 19 19 21 21 21 22 22 19 17 17 19 22 22 17 16 15 15 16 16 16 15 15 15 16 16 17 19 19 19 20 19 20 20 20 20 20 21 22 22 23 23 23 23
20 18 20 19 21 20 22 21 20 19 20 19 20 20 18 16 15 14 14 14 16 15 15 15 15 15 16 17 18 18 18 19 19 19 19 19 19 20 20 21 22 22 23 23
20 21 20 21 21 21 21 21 20 21 22 23 22 20 17 16 15 15 14 16 16 16 15 15 15 14 15 16 17 18 18 18 18 18 19 19 19 19 20 20 20 21 21 21
17 19 20 20 20 21 21 21 20 20 20 19 17 20 16 15 14 14 15 15 16 16 16 16 15 14 14 14 15 16 16 17 17 17 17 17 17 18 19 19 20 20 20 20
16 17 18 20 17 22 22 21 20 20 19 18 20 18 15 15 15 15 15 15 15 15 15 16 15 15 14 13 14 14 15 15 16 16 16 16 16 16 17 18 18 19 19 19
15 14 14 17 17 18 19 21 20 19 18 18 16 15 15 15 15 15 15 15 15 15 15 15 14 14 14 14 13 13 14 14 14 14 14 14 15 15 15 15 16 16 17 18
12 12 13 16 15 17 21 20 21 20 20 17 16 16 16 15 16 16 15 15 14 15 14 13 13 13 14 14 14 14 13 13 14 13 13 14 14 14 15 15 16 16 17 17
13 11 14 13 18 18 18 19 19 20 18 16 16 16 16 16 15 14 14 13 14 13 13 13 13 13 14 13 14 14 12 13 12 12 12 13 13 13 14 14 15 15 16 16
12 11 13 13 15 16 17 18 18 19 18 17 17 17 16 17 15 13 12 12 12 12 12 13 13 13 13 13 14 12 12 11 11 11 12 12 12 12 13 13 14 14 14 15
15 11 9 11 13 16 17 18 21 17 15 16 16 16 16 14 13 13 13 11 11 11 11 12 12 11 12 12 13 11 11 10 11 11 11 11 11 11 11 12 12 13 13 13
13 13 12 12 12 13 14 17 17 13 15 15 15 15 13 13 13 12 12 11 11 11 11 11 11 11 11 11 12 11 9 10 10 10 9 9 10 10 10 11 10 10 11 11
14 11 13 13 15 15 16 17 17 16 16 14 14 14 13 13 12 11 11 10 10 10 10 10 11 10 10 10 10 10 9 9 9 9 8 8 8 8 8 9 9 9 8 8
12 13 12 13 14 14 16 16 17 17 15 14 14 14 14 13 12 12 11 10 10 10 10 11 11 10 9 9 9 9 9 9 9 8 7 7 7 7 7 7 7 7 7 7
11 13 11 12 13 14 14 16 16 15 15 13 13 13 13 13 12 12 12 11 10 10 11 11 11 11 10 9 9 8 8 8 8 7 7 7 7 6 6 7 7 7 7 7

GFSCGP_925_temp_093.txt.gz
Temp
25 26 27 28 28 28 28 28 27 28 27 27 26 24 24 24 26 25 27 27 26 25 27 26 25 25 24 23 22 22 22 23 23 22 21 22 22 22 23 23 23 23 23 24
25 26 27 27 27 29 29 29 29 27 27 26 24 24 23 25 26 27 27 27 27 28 27 26 25 25 24 24 23 22 22 23 23 22 22 22 22 22 22 23 23 23 24 24
27 27 26 27 27 28 29 29 28 29 24 24 23 22 24 25 26 27 27 28 28 28 28 27 26 25 25 24 23 22 23 24 23 22 22 23 23 22 22 23 23 23 23 23
27 27 27 27 28 28 29 29 29 27 28 26 26 23 24 26 25 25 27 28 29 29 28 27 26 25 25 24 23 23 24 24 23 23 22 23 23 24 23 23 22 23 23 23
27 26 27 27 28 28 29 28 30 28 27 27 25 24 26 25 25 25 26 28 29 29 29 28 26 26 26 24 24 23 23 23 23 23 23 23 24 23 23 23 23 23 23 23
27 27 28 29 28 28 29 28 28 27 29 28 28 28 28 26 27 27 27 27 27 28 29 27 24 25 24 24 23 23 22 23 23 23 23 23 23 24 23 23 23 22 23 22
26 27 28 28 28 27 29 28 26 28 28 29 27 28 31 27 25 26 27 27 27 27 27 27 25 24 24 24 23 24 22 22 23 22 22 23 23 23 24 24 23 23 23 23
26 25 27 28 29 28 28 30 28 27 27 29 26 29 30 23 22 23 25 28 27 27 27 27 26 23 22 23 23 24 23 22 22 22 22 23 23 22 23 24 23 23 23 24
25 26 27 27 28 29 27 28 31 28 26 30 29 28 24 23 22 23 25 27 27 26 25 26 26 24 23 23 23 23 22 22 22 22 22 23 23 23 23 24 24 23 24 23
25 26 27 28 28 27 29 30 29 28 27 28 27 27 30 24 21 21 22 21 21 23 24 23 24 24 24 21 22 22 22 22 22 21 22 23 23 24 23 23 23 24 23 23
25 26 26 26 27 29 28 28 27 30 28 30 29 29 24 25 23 21 19 20 19 19 20 20 20 21 21 21 22 21 21 22 21 22 22 23 23 23 23 23 23 23 23 23
24 26 26 25 25 25 27 27 28 30 27 27 29 30 21 22 23 21 20 20 20 19 18 18 18 20 20 20 21 21 21 21 21 22 22 23 21 22 23 23 23 23 23 23
23 24 25 26 26 26 26 25 24 26 28 28 30 30 21 20 20 19 19 19 18 18 17 17 17 18 20 21 20 21 20 20 21 20 21 21 21 22 22 22 23 23 23 23
23 23 25 27 25 25 24 24 25 28 29 28 30 27 20 20 20 18 18 18 18 17 17 17 16 16 17 19 19 19 19 19 20 19 20 19 19 21 22 21 22 22 23 23
23 23 24 24 25 25 25 25 25 27 26 29 27 28 25 22 21 20 19 17 17 18 17 16 16 15 16 17 18 18 18 18 18 18 18 18 19 19 18 18 19 21 22 22
23 21 22 23 23 25 25 25 25 24 24 24 23 25 20 22 20 19 19 18 18 18 17 16 15 15 15 15 16 17 18 18 18 18 18 18 18 18 18 17 18 18 19 20
21 22 21 23 22 25 25 25 25 24 23 24 26 23 20 19 20 20 19 19 19 18 17 16 15 14 13 14 15 15 16 16 16 16 16 16 17 17 17 18 18 19 18 19
21 20 20 23 23 23 23 24 24 24 23 22 21 20 21 20 20 19 20 20 19 19 18 18 16 14 12 13 13 13 13 14 15 14 14 14 15 15 15 16 17 17 17 18
20 21 20 22 22 22 23 22 23 24 24 21 21 20 20 20 20 19 19 20 19 19 18 17 16 14 13 13 13 13 13 13 13 13 14 14 14 15 15 15 15 16 15 16
20 20 23 21 22 22 22 22 22 23 24 22 21 20 20 20 22 22 19 19 18 17 15 14 13 13 13 12 13 13 12 13 12 12 13 13 14 14 14 14 15 15 14 15
20 20 21 21 22 22 21 21 21 22 23 21 21 21 21 21 20 20 19 18 17 15 14 13 14 13 12 12 13 12 12 11 11 12 12 12 12 13 13 13 13 14 14 13
20 20 19 19 20 20 20 21 22 21 20 20 21 20 20 19 17 18 18 17 16 15 14 14 14 13 12 12 12 11 10 10 10 11 10 11 12 11 12 12 12 13 13 14
18 19 19 20 20 18 18 19 19 19 20 20 20 21 20 18 17 17 17 16 15 14 14 14 14 12 12 11 12 12 10 9 9 9 9 9 9 9 10 10 10 11 11 11
18 16 18 18 19 19 19 19 19 19 20 19 18 19 19 18 17 16 16 16 15 14 13 13 13 12 11 10 10 10 9 9 9 9 9 9 9 9 9 9 10 10 10 11
19 17 18 19 18 18 19 19 20 20 19 18 18 18 19 18 17 16 15 15 14 13 13 13 13 12 11 10 10 9 9 9 9 9 9 9 9 9 8 8 8 9 7 8
18 19 18 19 21 21 21 19 19 19 20 19 18 17 17 17 17 16 15 13 13 12 12 12 12 12 11 10 9 9 8 8 9 9 9 9 9 9 9 9 8 7 7 6

GFSCGP_925_temp_096.txt.gz
Temp
29 30 30 32 33 32 29 27 32 32 28 23 24 23 23 22 23 30 31 31 31 31 30 29 28 28 27 26 25 25 24 23 23 23 25 25 26 25 25 25 23 23 24 23
29 29 32 32 32 32 32 31 32 32 30 29 23 23 23 23 23 28 30 31 31 31 31 30 29 28 28 26 26 25 24 23 23 24 25 25 26 25 25 25 24 24 24 23
30 32 32 30 31 32 33 33 33 31 27 28 26 24 24 23 22 26 30 32 32 31 32 31 29 29 28 27 26 25 24 24 23 24 24 23 24 24 24 24 24 24 24 24
31 32 30 30 31 32 33 33 33 30 30 26 26 25 25 24 22 24 29 31 31 31 32 31 30 29 29 28 26 25 24 24 23 23 24 23 23 24 24 26 26 25 24 24
31 30 30 30 31 31 32 33 33 33 31 28 27 29 27 23 24 27 29 31 32 32 33 32 31 30 29 28 27 26 25 24 24 23 24 24 24 24 25 26 24 25 24 24
31 32 31 32 32 31 32 32 32 33 32 30 30 30 27 28 27 29 30 31 32 33 33 32 31 30 30 29 28 27 25 24 23 23 23 23 24 24 23 24 25 26 26 24
29 29 31 32 31 31 31 32 30 30 31 32 33 31 31 29 29 30 29 30 31 33 33 32 31 30 29 29 27 27 25 24 24 23 24 23 24 23 24 24 24 26 25 25
29 28 30 31 32 31 30 32 31 28 31 33 31 31 32 32 29 29 31 30 31 32 33 32 27 26 26 28 27 23 25 25 24 24 24 23 23 24 24 25 24 24 25 25
29 29 31 31 32 32 31 30 33 32 32 33 33 33 28 28 28 29 30 30 31 31 32 32 30 29 27 26 24 24 23 25 24 24 24 23 23 23 25 23 23 24 24 26
30 29 31 31 32 32 32 33 31 32 30 31 33 32 32 28 28 25 29 30 32 31 31 31 30 28 24 22 23 24 24 23 23 24 25 23 24 24 24 24 23 24 24 24
30 30 30 31 30 31 31 31 32 34 33 33 32 33 32 31 29 25 24 24 26 29 29 28 28 28 26 22 20 21 21 22 23 22 23 23 24 24 24 24 24 24 24 23
30 30 29 30 31 31 33 32 32 32 31 33 33 32 28 29 28 27 23 23 22 22 21 22 24 24 23 23 20 21 21 20 21 22 21 22 23 23 24 23 24 23 23 23
29 28 28 28 30 30 31 32 33 34 34 32 32 33 28 27 27 26 24 23 22 21 20 20 22 22 23 22 20 20 20 21 21 22 22 20 22 22 23 23 23 24 23 23
25 29 29 30 30 31 29 30 31 32 32 33 33 32 28 27 26 24 23 22 20 21 19 18 18 20 20 22 22 21 20 20 21 20 20 21 21 21 22 22 23 23 23 23
26 27 29 29 30 30 30 31 31 31 33 32 34 33 31 28 27 25 23 22 21 22 21 18 17 17 17 19 21 21 20 20 19 19 19 19 19 20 20 21 21 22 22 23
28 25 27 27 28 30 29 29 30 31 31 32 32 32 28 28 27 25 23 21 22 22 21 19 17 16 16 16 18 19 19 19 19 18 18 18 19 18 19 19 20 20 21 21
25 26 25 26 27 28 28 29 30 29 29 31 31 29 27 26 25 25 24 22 22 22 21 19 17 16 15 15 16 16 17 18 18 18 17 18 17 18 18 19 18 18 20 20
25 26 26 26 26 24 26 28 29 28 28 29 28 27 27 26 26 25 25 24 22 22 19 19 16 14 13 13 14 15 16 16 16 16 16 16 16 16 16 17 17 17 18 19
27 27 26 25 26 27 26 26 27 27 28 27 27 26 26 25 24 23 24 24 24 23 21 19 17 14 12 12 12 13 13 13 13 13 14 15 15 15 15 16 17 17 18 18
26 26 26 25 25 25 26 25 26 26 27 27 27 25 25 25 26 26 23 24 23 22 21 20 16 13 13 12 12 13 12 12 11 11 12 13 13 14 14 14 15 15 16 18
25 25 25 26 25 26 25 25 25 25 24 25 26 26 25 25 22 23 23 22 21 20 19 17 16 15 14 13 13 12 12 12 12 12 12 13 13 14 14 14 14 14 16 16
24 24 24 24 24 23 24 25 24 23 25 25 25 25 25 23 23 23 22 21 20 18 17 16 15 13 12 13 14 12 11 11 12 12 11 11 12 14 13 12 13 14 14 15
22 24 23 24 24 23 23 23 23 24 24 24 24 25 24 23 23 22 21 21 19 18 17 17 16 16 15 14 13 12 11 11 11 11 11 11 12 13 13 13 12 13 13 15
22 22 23 22 24 23 23 23 24 24 24 24 24 24 24 23 22 22 21 21 19 18 18 18 18 17 16 15 15 14 12 12 12 12 12 12 13 13 13 14 15 15 15 16
23 22 23 23 23 22 23 23 23 23 23 23 23 23 23 23 22 22 21 20 19 18 18 18 17 17 16 14 14 13 12 12 13 13 13 13 13 13 13 13 13 13 9 10
23 23 22 23 24 23 24 24 23 23 23 23 22 22 22 22 22 21 21 19 19 18 17 17 17 17 15 14 13 13 12 12 13 13 14 15 14 14 14 13 11 9 8 8

GFSCGP_925_temp_099.txt.gz
Temp
32 32 32 34 35 28 26 24 24 29 26 25 25 24 23 23 24 26 32 32 32 32 32 31 31 30 29 28 27 27 26 25 24 24 27 26 26 26 26 26 25 25 25 25
32 32 34 35 36 35 33 27 22 26 28 27 24 23 23 22 23 24 28 32 33 33 32 31 31 31 30 28 28 27 26 24 24 25 26 26 26 27 27 26 26 25 25 25
32 34 35 35 34 34 35 30 25 22 26 25 24 23 23 21 21 23 25 31 33 33 33 32 31 31 30 29 28 27 27 24 25 25 25 25 26 25 26 25 26 25 25 25
33 36 34 33 33 34 34 30 25 23 30 26 25 24 25 22 22 21 28 30 32 32 31 33 32 32 31 29 28 27 26 25 25 25 26 24 24 24 25 25 25 25 25 26
32 34 34 33 33 35 33 34 26 25 30 30 27 29 27 26 22 22 28 30 31 32 32 29 33 32 32 30 29 28 26 26 26 25 25 25 26 26 26 25 26 25 25 26
34 35 34 34 35 35 35 34 35 33 32 26 31 32 29 28 24 22 24 27 30 31 30 31 33 32 32 31 29 28 26 26 25 25 25 25 25 26 25 24 25 27 26 26
32 32 34 34 34 34 34 34 32 32 25 33 33 33 32 31 25 24 24 27 31 28 33 31 33 31 31 31 30 28 27 25 25 25 25 25 25 24 24 25 26 24 24 24
31 31 33 34 34 33 33 35 33 31 32 32 32 32 31 33 31 31 30 31 32 33 29 32 32 31 31 30 30 29 27 26 25 25 25 25 25 26 26 26 26 27 26 27
32 32 34 34 34 35 33 33 36 32 34 29 32 31 32 34 33 32 31 33 31 33 31 32 33 31 29 30 30 29 26 26 26 26 25 24 24 25 25 24 25 26 26 25
33 32 34 33 34 35 34 35 33 35 31 30 32 33 33 30 31 32 32 33 32 32 34 32 31 30 27 27 25 25 25 25 25 26 26 24 24 24 25 25 24 25 24 23
32 32 32 33 32 33 33 33 34 35 35 34 32 33 34 32 32 31 33 34 34 33 33 33 31 31 29 26 24 24 23 23 24 24 25 25 25 25 25 25 25 25 25 24
31 32 31 32 34 34 35 34 34 33 33 35 35 27 34 33 32 31 28 28 28 30 32 32 31 28 25 24 21 22 23 23 22 22 23 23 24 25 25 25 25 25 25 24
31 31 30 31 33 34 33 34 35 36 36 34 34 32 33 32 29 29 27 26 26 24 25 26 27 27 25 23 23 23 21 21 22 21 22 22 23 23 23 23 25 25 25 24
27 31 31 30 31 33 32 33 35 35 34 34 34 31 31 31 30 28 25 23 23 23 22 23 23 24 24 24 23 22 21 21 21 20 21 21 22 21 22 22 23 23 25 24
29 29 31 32 31 33 33 33 34 33 35 34 35 34 33 32 30 29 26 24 23 23 22 19 20 19 21 23 23 23 22 20 20 21 21 20 21 20 20 21 22 22 23 24
29 27 28 31 30 32 33 33 33 34 34 35 34 33 33 32 30 28 27 25 25 25 23 21 18 18 17 18 22 23 22 21 22 22 21 20 20 20 20 20 21 21 22 22
26 24 27 26 31 30 30 32 33 33 34 34 33 31 32 31 30 29 27 26 25 25 23 21 19 18 16 15 17 18 20 21 21 20 19 19 19 19 19 19 20 20 21 21
25 19 22 26 25 28 28 31 32 32 32 32 32 31 31 30 30 29 29 27 26 24 23 22 19 16 14 14 15 16 17 17 17 17 18 18 18 18 18 18 18 19 19 20
27 25 24 23 20 25 28 29 30 30 30 31 30 30 30 30 29 27 28 28 26 24 23 21 18 15 13 13 14 14 14 14 15 15 15 16 16 17 17 17 19 19 19 20
29 28 26 28 23 25 21 28 29 29 29 30 30 29 29 28 29 28 27 27 26 24 22 20 16 14 13 12 13 13 12 12 13 13 14 14 14 15 16 17 17 18 18 20
27 27 27 28 27 21 25 28 28 27 25 28 30 29 29 28 26 27 27 25 24 22 20 18 16 14 13 13 13 12 12 12 13 13 13 13 13 13 14 14 15 16 17 19
26 25 26 27 22 25 27 28 27 26 27 28 28 28 28 26 26 26 25 24 23 22 20 20 18 17 14 14 13 12 12 11 12 13 13 13 14 14 14 14 14 15 16 16
24 26 25 27 24 25 26 26 26 27 26 27 27 28 27 26 26 25 25 23 22 21 20 19 18 16 15 15 16 13 12 13 13 13 13 13 13 13 13 14 15 16 15 17
26 25 25 25 26 26 26 26 26 26 26 26 27 27 27 26 26 25 24 24 22 21 20 19 19 18 17 15 14 14 14 14 13 13 12 13 13 13 14 15 17 18 18 18
27 25 25 25 25 25 25 26 26 25 25 26 26 26 26 26 25 25 24 23 22 21 20 20 19 19 18 17 17 15 13 13 14 14 14 14 15 14 15 14 13 14 13 13
27 25 25 25 26 25 25 25 25 25 25 25 25 24 24 25 24 24 24 22 22 21 20 20 20 19 18 17 16 16 15 15 16 16 16 17 18 16 17 15 13 11 11 11

GFSCGP_925_temp_102.txt.gz
Temp
32 31 31 33 34 34 27 25 27 23 24 27 25 23 23 25 28 26 32 32 32 33 32 32 31 30 28 28 27 27 26 26 26 25 25 26 26 26 25 25 25 25 25 25
33 31 34 35 34 28 26 25 23 21 22 22 25 23 23 23 24 24 25 26 32 33 32 31 30 30 29 28 27 27 25 25 25 25 25 25 25 25 25 25 25 25 25 25
32 34 35 35 34 31 30 29 23 22 20 21 25 23 23 22 21 23 24 26 24 31 31 31 31 31 29 28 27 26 25 24 25 24 25 24 25 24 25 25 26 25 26 25
33 35 36 35 34 33 27 26 25 22 21 22 25 24 23 21 22 21 23 24 26 29 30 32 31 31 30 29 28 26 25 24 24 25 25 25 24 24 25 24 23 25 26 26
33 34 35 34 35 34 29 29 26 23 21 21 24 27 24 23 22 22 23 24 26 28 31 30 31 31 30 29 28 27 26 25 26 25 25 25 25 25 24 24 23 24 25 26
34 36 35 36 36 35 31 31 25 23 21 23 28 29 25 24 25 24 24 25 25 28 31 27 30 30 30 29 28 27 26 25 25 25 25 24 25 25 24 23 24 23 24 25
33 34 35 36 34 36 33 32 28 25 23 26 24 30 27 27 28 26 24 23 24 27 29 31 28 30 30 29 28 27 26 25 25 25 25 25 24 25 24 25 25 25 25 25
31 31 34 35 34 34 34 32 31 26 27 26 24 29 29 29 29 27 26 26 24 25 26 29 27 26 30 29 28 27 26 25 25 25 25 25 25 25 25 25 25 24 23 23
32 32 36 35 35 35 34 33 35 32 30 30 26 28 30 30 28 28 28 26 24 24 24 25 25 27 26 25 25 27 26 25 25 26 25 25 25 25 25 25 25 25 23 23
33 31 35 35 35 35 35 36 33 30 29 29 29 26 29 29 29 28 28 28 26 25 24 27 24 23 26 25 23 25 26 25 25 26 25 24 24 24 25 25 25 24 23 24
33 32 33 35 33 33 34 34 35 35 34 29 30 28 27 32 31 31 32 31 30 30 27 22 24 24 25 24 24 25 25 25 25 26 25 25 24 25 25 25 25 25 24 24
32 32 31 32 35 35 35 34 35 33 33 34 34 30 26 26 31 32 33 33 30 32 27 23 23 22 25 25 25 24 24 25 25 25 24 24 24 23 25 25 24 25 25 24
30 30 30 31 33 35 33 34 35 35 35 33 33 26 25 23 29 30 30 29 26 29 28 26 26 26 26 25 24 23 22 23 24 24 24 23 23 23 24 23 24 22 25 25
28 29 30 30 29 31 33 33 35 35 34 34 35 31 30 30 29 29 28 28 25 25 25 27 26 25 23 24 23 23 23 21 21 22 22 22 22 23 23 22 22 23 24 23
30 28 30 31 31 32 32 33 34 34 34 34 35 33 33 31 30 29 26 26 25 24 23 24 21 21 23 24 24 24 23 22 20 21 21 21 21 21 22 22 22 22 23 23
30 28 28 28 31 31 31 33 34 35 35 35 32 30 25 22 22 27 26 24 24 24 23 21 21 21 19 21 23 23 23 22 21 21 21 21 21 20 21 21 21 21 22 22
28 27 25 27 27 30 30 31 31 34 35 35 29 28 27 22 21 26 26 25 24 23 22 21 20 18 17 16 18 19 22 22 22 21 21 21 20 21 20 20 20 20 21 22
27 24 23 22 24 26 26 31 31 31 35 32 31 27 28 26 28 28 28 27 25 23 21 21 18 16 14 15 16 18 19 19 19 19 19 19 20 19 19 19 19 19 20 21
28 24 21 19 20 22 27 26 28 28 27 30 31 32 29 23 29 29 29 27 25 23 22 20 18 15 13 14 15 16 16 16 16 16 17 17 17 18 18 18 19 19 20 20
27 24 23 23 22 22 22 23 27 28 20 23 29 31 31 30 29 27 26 26 25 20 19 18 15 14 13 12 13 14 13 14 14 14 15 16 17 17 17 17 18 18 19 19
23 23 21 18 19 21 22 23 26 26 24 29 30 30 28 27 27 26 24 23 22 21 19 17 15 14 13 13 14 13 13 13 13 14 14 14 15 15 15 15 16 16 17 19
25 26 26 26 22 21 25 25 25 24 28 29 29 29 27 27 27 26 25 23 21 20 19 17 15 14 13 13 13 13 12 12 13 14 14 14 14 14 15 15 15 16 17 18
25 26 25 26 22 23 25 26 27 28 27 27 28 29 28 27 27 26 25 23 22 22 21 20 18 16 15 15 14 13 13 13 13 13 13 14 15 15 15 15 16 16 16 17
27 27 26 26 25 26 27 27 27 27 27 27 28 28 28 27 27 26 25 24 22 21 21 20 18 18 17 16 16 14 13 14 14 13 13 14 14 14 15 15 15 16 17 18
27 26 26 26 27 26 26 27 27 26 26 27 27 27 27 27 26 26 25 23 22 21 21 20 20 19 17 16 15 15 15 15 15 15 14 14 14 14 14 15 15 15 15 15
28 27 26 26 27 26 26 26 26 26 25 26 26 26 26 26 26 26 23 22 21 21 21 20 20 19 18 18 16 16 15 15 15 15 15 16 16 16 16 15 13 13 14 14

GFSCGP_925_temp_105.txt.gz
Temp
30 26 25 27 29 30 26 26 24 22 21 21 24 24 23 23 25 25 30 28 30 29 30 29 28 27 27 27 27 26 26 26 25 25 25 25 25 25 25 25 25 25 25 25
27 25 28 31 32 30 26 24 23 21 21 21 21 24 23 22 23 23 24 25 27 29 30 28 27 27 27 27 26 25 26 25 25 25 25 25 25 25 25 25 25 25 25 25
26 29 31 32 30 30 26 25 24 23 21 20 21 23 23 23 22 23 24 24 25 26 29 28 27 27 27 26 26 25 25 26 25 25 25 25 25 25 25 25 25 25 26 25
28 31 32 32 28 29 26 26 24 22 22 22 20 23 23 23 23 23 23 25 24 24 27 28 28 27 26 27 27 26 25 25 25 25 24 25 25 25 25 25 25 25 26 26
28 30 31 31 33 29 25 25 25 24 21 22 22 23 23 22 23 24 25 25 24 26 27 29 29 28 27 26 27 26 26 25 25 25 24 24 25 25 24 24 25 25 25 25
30 32 32 32 34 29 27 25 23 22 22 22 23 22 23 22 24 26 26 25 25 25 26 26 30 29 27 26 26 26 25 25 25 24 24 24 24 24 24 24 23 24 24 25
29 31 32 33 29 27 25 23 22 22 22 22 23 23 23 26 25 25 25 24 25 24 24 26 27 27 28 27 25 25 25 25 25 25 25 25 25 24 24 24 24 24 24 24
26 27 31 34 32 27 26 25 23 24 23 24 25 24 24 27 27 27 25 25 24 24 24 25 27 25 27 27 26 26 25 25 25 25 24 24 25 25 25 24 23 24 24 24
27 29 33 33 33 32 29 28 28 23 23 24 23 23 23 27 26 27 25 24 23 24 24 24 25 24 25 23 26 26 25 25 25 25 25 25 25 25 25 24 24 24 25 25
28 27 30 33 33 33 32 31 27 26 24 24 24 23 23 26 24 25 25 25 27 25 25 23 23 22 22 21 23 25 25 25 25 25 25 25 25 25 24 24 24 24 24 24
29 28 27 30 30 30 29 29 29 26 27 26 24 24 24 25 27 26 26 26 26 25 24 23 22 21 24 21 22 26 25 25 25 25 25 25 24 25 24 24 24 24 24 24
26 27 24 28 33 32 31 30 28 26 28 27 27 24 26 26 26 27 27 25 25 26 25 22 21 20 22 21 23 27 25 24 25 25 25 24 23 24 24 24 24 24 24 24
25 24 23 26 29 32 30 30 30 28 28 28 28 24 25 26 27 27 27 25 25 24 22 21 20 20 20 21 21 24 24 22 24 25 24 23 24 24 24 23 24 24 24 24
26 25 24 23 27 28 28 30 30 29 27 28 28 25 23 25 25 25 22 22 21 24 22 20 20 21 21 21 22 21 21 23 23 23 23 24 24 23 23 23 23 23 23 23
26 24 25 27 28 29 29 30 31 29 28 29 27 27 22 21 25 22 22 22 21 22 22 21 21 21 20 21 21 21 22 22 22 22 23 23 23 22 22 22 22 22 23 23
25 23 26 25 24 26 27 30 31 31 31 29 25 21 20 21 21 22 23 23 22 21 20 20 19 19 19 20 21 22 22 22 22 22 21 21 22 22 22 22 22 22 22 22
24 22 21 23 22 24 26 24 27 25 24 30 27 23 20 20 21 22 23 23 22 21 19 19 18 17 17 18 20 21 22 22 22 21 21 21 21 20 20 20 20 20 21 21
23 21 21 19 21 23 22 24 25 24 23 22 25 24 22 21 22 22 24 22 21 20 19 18 16 15 15 16 18 19 21 21 21 21 20 20 20 19 19 19 19 20 20 21
24 21 20 18 19 22 23 22 23 22 22 22 20 22 24 24 22 23 23 21 20 19 19 17 15 14 14 15 16 17 18 19 19 18 19 19 19 19 19 19 19 19 20 19
23 22 19 17 18 19 20 23 23 24 20 22 21 20 21 21 21 22 21 20 19 17 16 15 14 13 14 14 15 16 15 16 15 16 17 17 18 18 18 18 18 19 19 19
21 20 19 18 18 19 22 23 23 22 22 22 21 18 18 17 19 19 18 18 18 17 15 14 14 13 13 14 14 14 14 14 14 15 16 16 16 17 17 17 17 18 18 18
21 17 18 16 16 19 24 24 24 23 25 24 19 19 19 19 20 20 18 18 18 16 15 14 14 13 13 14 15 14 14 13 14 14 15 15 15 16 16 17 16 17 17 17
22 23 21 18 17 17 22 23 25 23 23 24 23 22 22 21 21 21 19 18 18 17 16 15 14 14 14 14 14 13 13 14 14 14 14 14 15 15 15 16 16 17 17 17
25 25 19 21 22 22 24 24 23 23 23 24 23 24 24 22 21 21 19 18 20 19 17 16 16 15 14 15 15 15 14 14 14 14 14 14 15 14 14 15 15 15 16 17
23 25 24 21 22 23 24 24 23 23 24 24 23 23 22 23 21 21 21 20 20 20 18 18 17 16 16 15 15 15 15 15 15 14 14 15 15 14 14 15 15 15 15 15
24 23 21 20 21 20 22 22 23 23 25 23 22 21 22 22 22 20 18 20 20 20 19 19 18 17 16 16 15 15 15 15 15 15 15 15 15 15 15 15 15 15 15 15

GFSCGP_925_temp_108.txt.gz
Temp
26 24 24 25 25 27 26 23 23 22 21 22 21 21 22 23 27 26 26 28 28 27 27 25 25 25 25 26 25 25 25 25 25 25 25 25 25 25 25 25 25 25 25 25
25 23 25 27 28 28 24 22 22 22 21 22 21 21 22 23 22 23 24 28 28 27 26 25 25 24 24 25 26 26 25 25 25 25 25 25 25 25 25 25 25 25 25 25
24 26 28 28 28 25 24 25 22 23 22 21 21 21 22 23 22 23 24 24 25 27 25 25 25 25 25 25 25 25 26 25 25 25 25 25 24 25 25 24 25 25 25 25
25 27 28 28 28 26 23 25 25 22 22 22 21 23 22 22 22 23 24 24 24 25 26 25 26 25 25 25 26 26 25 25 25 25 25 25 24 25 24 25 25 25 25 24
25 28 28 28 29 27 23 25 24 23 21 21 22 22 22 21 23 23 24 24 24 24 26 26 25 25 25 26 25 25 25 25 25 25 25 25 24 24 24 24 24 24 25 25
26 28 28 28 29 26 25 24 23 22 21 22 23 23 22 22 23 25 25 24 24 24 24 25 26 26 25 24 24 25 25 25 25 24 24 24 24 24 24 24 24 24 25 25
25 28 28 26 24 25 23 21 21 22 22 23 22 22 23 24 24 25 25 23 24 24 24 24 25 25 25 24 24 25 25 25 25 24 24 24 24 24 24 24 24 24 24 25
24 24 29 27 25 23 23 24 23 24 22 24 23 23 24 25 26 27 26 25 23 24 23 24 24 25 25 24 24 24 25 25 24 24 24 24 24 24 25 24 24 24 25 25
24 25 28 30 26 25 23 25 25 22 22 23 23 24 24 26 26 25 25 25 24 24 23 23 24 24 25 24 24 24 25 25 24 24 24 24 24 24 24 24 23 24 24 24
24 24 27 29 30 27 26 27 25 22 22 23 22 22 23 25 25 24 24 24 24 23 22 22 22 22 24 24 23 23 25 25 24 24 24 24 24 24 24 24 24 24 24 24
23 23 25 28 28 27 27 26 24 23 23 23 22 23 22 25 25 24 24 24 24 24 23 21 20 21 23 25 25 24 22 24 24 24 24 24 24 24 24 24 24 24 24 24
24 21 23 26 26 27 27 27 24 23 27 24 24 24 27 25 25 24 24 24 24 25 23 21 20 21 22 24 25 25 22 23 24 24 24 24 24 24 24 24 24 24 24 23
23 20 21 24 24 26 26 27 28 23 23 25 26 25 26 23 23 25 24 23 22 22 21 21 20 20 20 24 25 24 22 21 24 24 24 22 22 24 24 24 24 23 23 23
24 20 22 23 24 24 25 26 26 25 23 25 25 27 24 23 22 22 22 22 21 21 21 20 20 20 20 20 20 21 20 22 24 23 23 22 22 23 24 24 23 23 23 24
23 23 24 26 24 25 25 24 25 25 25 27 27 25 21 21 21 21 21 21 22 21 21 20 19 19 20 20 21 21 21 22 23 24 24 24 23 24 23 23 23 22 22 22
21 23 22 23 24 23 24 23 24 23 22 24 23 21 20 21 21 21 21 22 21 21 21 20 19 20 20 21 21 21 21 20 20 21 21 23 23 22 22 22 22 21 22 22
20 20 20 21 20 24 21 22 22 22 21 20 24 23 19 20 22 21 21 21 21 20 20 19 18 19 20 19 21 21 19 20 20 21 21 22 21 21 21 21 21 21 21 20
20 18 17 19 19 21 21 20 23 22 21 20 21 21 20 19 19 20 20 20 19 19 18 17 16 16 16 17 19 19 19 20 20 20 20 20 20 20 20 20 20 20 20 20
18 17 16 17 17 20 22 22 21 21 21 20 20 20 21 21 21 19 20 19 18 17 16 15 15 15 15 16 16 18 19 19 20 20 20 20 20 20 19 19 19 19 19 19
18 16 16 16 19 20 20 22 22 21 20 19 19 19 19 21 20 19 17 17 15 15 14 14 14 14 15 15 17 17 16 18 18 18 19 19 19 19 19 19 19 19 19 19
17 16 17 16 17 18 19 21 22 21 21 20 19 18 18 18 18 17 17 16 15 14 14 14 14 13 14 14 15 15 15 15 15 16 17 17 17 18 18 18 18 18 18 18
18 16 16 14 17 20 21 21 21 21 21 19 18 18 17 17 17 17 17 16 15 14 14 14 14 13 13 14 15 14 14 14 15 15 16 15 15 16 16 17 17 17 17 17
19 17 16 16 16 17 19 22 21 20 19 19 18 18 18 17 17 17 17 16 16 14 14 14 14 13 13 14 14 13 13 13 14 14 14 14 15 15 15 16 16 16 17 17
21 19 18 19 21 21 21 20 19 19 21 20 18 17 19 18 18 18 17 16 16 16 15 15 14 14 13 14 14 14 14 14 14 15 15 15 15 15 15 15 16 16 16 16
19 21 18 18 21 21 22 21 21 21 21 21 20 19 18 19 18 18 18 17 17 16 16 16 16 15 15 14 14 14 14 14 15 15 15 14 14 15 15 15 15 16 16 16
19 20 17 17 19 18 20 20 21 21 20 19 19 19 18 19 18 19 18 18 17 17 16 16 16 16 16 15 15 15 14 14 14 14 15 15 15 15 15 15 15 15 15 15

GFSCGP_925_temp_111.txt.gz
Temp
25 23 23 24 24 26 24 24 22 22 21 21 21 21 21 22 25 27 26 26 25 25 25 24 24 24 24 24 25 25 24 25 24 24 25 24 24 24 24 24 24 24 24 24
24 22 24 26 26 27 25 23 21 22 21 21 21 21 20 21 22 23 25 26 26 26 24 24 24 23 24 24 25 25 25 25 25 25 25 24 24 24 24 24 24 24 24 24
23 25 26 27 26 24 22 23 22 23 21 21 21 21 21 21 22 23 24 26 26 25 24 23 23 23 23 24 25 25 25 25 25 25 25 24 24 24 24 24 24 24 24 25
24 25 26 26 26 24 23 25 24 22 22 22 21 22 21 21 22 23 23 23 25 25 24 24 24 23 23 24 24 25 24 25 25 25 25 25 24 24 24 24 24 24 24 24
24 26 26 26 26 25 24 24 23 22 20 21 22 21 22 22 22 23 23 23 23 25 24 24 24 24 24 24 24 25 24 24 24 25 25 25 24 24 25 24 24 24 24 24
25 26 26 26 26 26 24 22 22 21 20 22 23 22 23 22 23 24 23 24 23 25 25 25 25 24 23 23 24 25 24 25 24 24 25 25 24 24 24 24 24 24 24 24
25 27 25 24 23 23 22 20 20 22 21 23 22 22 22 23 23 25 24 23 24 24 25 24 23 24 23 23 23 24 24 24 24 24 24 25 24 24 24 24 24 24 24 24
24 25 24 25 23 23 21 21 21 23 22 22 22 23 24 24 24 23 23 23 23 23 24 24 24 23 23 23 23 23 24 24 24 24 24 24 24 24 24 24 24 24 24 24
24 24 27 26 25 25 23 22 23 21 21 21 23 24 24 24 24 24 23 26 23 23 22 24 24 23 23 23 23 24 24 24 24 24 24 24 24 24 24 24 24 23 24 24
24 23 25 28 26 25 24 24 24 20 23 22 22 22 23 24 24 25 24 24 24 23 23 22 23 23 23 24 24 24 24 25 24 24 23 24 24 24 24 24 24 24 23 24
23 22 24 26 26 24 25 25 22 21 21 21 21 23 23 26 25 24 24 25 24 24 23 22 21 22 22 23 23 24 24 24 24 24 24 24 24 24 23 24 24 24 24 23
23 19 22 24 26 25 26 24 22 22 25 21 22 24 24 24 23 23 23 23 23 24 23 22 21 20 21 22 22 23 23 23 23 24 24 23 23 23 23 23 24 24 24 23
24 20 20 22 24 24 24 24 25 20 20 22 23 25 23 24 22 22 22 21 22 22 21 20 19 20 20 21 21 22 22 22 24 23 24 24 24 23 22 22 24 23 23 23
22 19 22 20 23 23 23 22 23 22 21 23 23 27 25 23 23 21 21 21 21 21 21 21 20 19 20 20 21 23 24 23 21 23 24 23 22 21 20 21 23 24 23 23
22 22 22 22 23 23 22 22 22 22 21 23 26 25 23 22 21 21 21 21 21 21 21 21 20 19 20 20 20 20 21 24 23 22 23 22 22 21 21 20 22 22 21 21
19 21 21 22 23 23 22 22 22 21 20 21 21 22 19 20 20 20 21 21 21 21 22 22 21 20 19 20 20 21 20 21 22 22 22 22 21 22 21 21 21 21 21 21
19 20 20 21 19 24 22 20 21 21 20 19 19 19 21 20 20 19 20 20 20 20 20 19 19 19 19 20 21 21 21 21 21 21 21 21 20 20 20 21 21 21 21 20
18 17 17 19 19 21 22 20 21 21 20 19 20 20 20 19 19 19 19 19 19 18 18 17 16 17 18 19 20 19 19 19 19 19 19 19 20 21 20 20 20 20 20 20
16 15 16 18 17 19 22 22 21 21 21 19 19 19 20 20 20 18 18 17 17 17 16 15 15 15 16 16 16 18 18 18 18 19 19 19 20 20 20 19 19 19 19 19
16 14 16 15 19 19 20 21 21 20 19 19 18 19 20 19 20 19 17 15 15 14 14 14 14 15 15 15 16 17 17 18 19 18 18 20 20 20 19 19 19 19 18 18
16 14 16 16 17 17 18 20 21 21 20 19 18 18 18 19 18 17 16 15 14 14 14 14 14 13 13 14 15 15 15 14 15 16 17 18 18 18 18 18 18 18 18 18
18 16 15 13 17 19 20 21 21 19 19 19 18 17 18 17 17 16 15 14 14 13 14 14 13 13 14 14 15 14 13 13 14 15 15 16 16 16 17 17 17 17 17 17
18 16 16 16 16 16 16 19 20 18 18 18 18 17 16 17 17 17 15 15 14 14 14 14 14 14 14 14 14 14 12 13 13 14 14 15 15 16 16 16 16 16 16 16
19 17 17 18 18 20 18 18 19 21 20 18 18 17 17 16 17 16 15 15 14 14 14 14 15 14 14 14 14 14 14 14 14 14 14 14 15 15 15 16 16 16 16 16
18 18 17 17 19 19 20 20 19 19 18 19 18 18 18 17 16 16 15 15 15 15 15 16 16 15 14 14 14 14 14 14 15 15 14 14 14 15 15 15 15 16 16 16
17 17 17 17 17 18 19 20 19 18 18 18 18 18 18 17 16 17 15 16 15 15 15 15 15 15 15 15 15 15 15 15 15 15 14 14 14 14 14 15 15 15 15 15

GFSCGP_925_temp_114.txt.gz
Temp
23 22 22 24 24 24 24 23 22 22 22 22 21 21 21 21 22 24 25 24 24 24 24 24 23 23 23 23 23 23 23 24 23 23 23 24 24 24 24 23 23 24 23 24
21 22 24 25 25 26 23 22 21 22 21 22 21 21 21 21 21 23 24 24 24 23 22 23 23 23 23 23 23 23 24 24 24 24 24 24 24 24 24 24 24 24 24 24
22 25 25 26 25 24 22 22 21 23 21 21 21 21 21 21 21 22 22 23 24 23 22 23 23 23 22 23 23 23 24 24 25 25 24 24 24 24 23 23 24 24 24 24
24 25 26 25 25 23 23 23 23 21 21 21 21 22 21 22 21 21 22 23 24 24 23 23 23 22 22 23 23 23 24 24 24 24 25 25 24 24 24 24 24 24 24 24
24 26 25 25 24 23 24 23 21 22 20 21 21 21 22 21 21 21 22 22 25 24 24 23 23 23 23 23 23 23 24 24 24 24 25 25 24 24 25 24 24 24 24 24
24 25 25 24 24 25 23 21 20 20 19 20 22 22 21 21 21 22 23 23 23 25 24 24 24 23 23 23 23 24 24 24 24 24 24 25 24 24 24 24 24 24 24 24
24 25 24 23 22 23 21 19 19 20 20 21 21 21 22 23 21 22 22 23 23 24 23 23 24 23 22 22 23 23 24 24 23 24 24 24 24 24 24 24 24 24 24 24
22 23 22 23 22 21 20 21 19 22 20 21 22 21 23 24 24 24 25 24 23 23 24 24 24 23 22 22 23 23 23 23 23 23 24 24 24 24 24 24 24 24 24 24
22 23 26 24 24 24 22 21 21 19 20 21 21 23 24 24 23 22 23 23 23 23 23 23 23 23 22 22 23 23 24 23 24 23 23 23 23 23 24 24 23 23 23 23
24 22 25 26 25 24 23 22 22 19 21 23 22 22 22 23 22 22 23 23 23 22 22 23 23 22 22 22 24 23 24 24 24 24 23 23 23 23 24 23 23 23 23 23
22 21 24 25 25 22 23 22 21 19 19 21 22 23 23 24 24 23 24 25 25 24 23 22 23 22 22 22 22 23 23 24 24 24 23 23 23 23 23 23 24 24 23 23
22 20 21 24 24 23 23 23 21 21 23 19 20 22 22 24 24 25 25 25 24 25 24 22 22 21 21 22 22 22 23 23 24 24 23 23 23 23 23 23 23 23 23 23
22 20 21 24 24 23 23 23 22 18 18 20 22 23 23 22 22 23 22 22 23 23 22 21 21 21 21 21 21 21 22 23 23 24 23 23 23 23 23 23 22 22 22 22
22 18 22 21 22 22 22 21 21 20 20 20 22 23 21 23 22 21 20 20 21 21 21 20 20 20 20 21 21 21 21 22 23 23 23 23 23 22 23 23 22 21 21 21
20 20 20 21 22 21 20 20 20 22 19 23 21 21 20 20 21 21 20 20 20 21 20 20 19 19 20 20 20 20 20 20 22 24 23 23 23 23 22 22 21 21 20 21
17 21 21 21 22 23 22 21 21 20 20 20 19 21 21 20 21 20 20 20 21 20 21 21 20 20 19 19 19 19 20 21 21 21 23 22 22 22 21 21 20 20 20 19
18 18 19 20 19 22 21 21 20 21 21 20 20 20 21 19 20 20 20 20 19 19 19 18 18 19 19 19 20 20 20 21 21 21 21 21 21 21 21 20 20 19 19 19
19 16 17 19 20 20 21 20 21 21 20 19 20 21 20 19 18 18 19 19 19 18 18 17 17 17 17 18 20 20 20 20 20 21 21 21 21 20 20 19 19 19 19 19
15 15 16 18 17 19 21 21 21 20 21 19 19 20 20 19 19 18 17 16 16 16 16 15 15 16 16 17 18 19 19 19 19 19 19 19 19 19 19 19 19 19 19 19
14 13 16 15 19 19 19 21 21 20 19 19 18 21 20 18 19 19 16 15 15 14 14 14 14 14 15 15 17 18 18 18 18 18 18 18 19 19 18 18 17 18 19 18
16 14 16 15 17 17 18 21 20 20 20 18 19 19 18 18 18 18 15 14 13 14 14 14 14 13 14 15 15 15 16 15 16 17 17 17 18 18 18 17 17 18 17 17
17 16 15 13 17 19 19 20 20 20 18 18 17 17 17 17 16 15 14 14 14 14 14 14 13 13 14 14 14 13 13 14 15 15 17 16 17 15 16 17 17 17 17 16
17 16 15 15 15 16 16 18 19 17 18 18 17 16 17 17 16 15 14 13 14 14 14 14 14 13 13 13 14 13 13 14 14 14 14 14 15 14 15 16 17 17 16 15
17 15 16 17 18 19 18 18 19 19 18 17 17 17 16 17 16 14 14 14 13 14 13 14 14 13 13 14 14 13 14 14 14 13 13 13 13 14 14 15 15 15 15 15
16 16 15 16 18 18 19 19 19 18 17 17 17 17 17 16 15 15 14 14 14 14 15 15 15 14 13 14 14 14 15 15 15 15 14 14 15 15 15 15 15 15 15 15
15 17 17 16 17 17 18 20 19 18 18 17 18 17 16 16 16 15 14 14 14 14 14 14 14 14 14 15 15 15 15 15 15 15 15 15 15 14 14 15 15 15 15 15

GFSCGP_925_temp_117.txt.gz
Temp
25 28 28 28 28 28 27 27 26 24 23 23 23 22 22 22 25 26 25 25 27 27 27 26 25 25 24 23 22 22 22 22 22 21 22 22 23 22 23 23 23 24 24 24
27 27 27 27 27 27 27 27 26 23 22 23 23 23 22 20 23 25 24 23 27 27 27 26 25 25 24 23 23 22 22 22 23 22 22 23 23 22 23 23 23 24 24 24
27 28 26 27 27 27 27 28 25 26 23 23 23 24 22 21 21 24 23 26 28 28 27 27 26 25 25 24 23 22 22 23 23 23 23 23 23 23 23 23 23 24 24 24
27 27 27 27 28 28 27 27 26 23 24 25 23 26 23 22 22 24 25 26 27 28 28 28 26 25 25 24 23 23 22 22 23 23 23 24 24 24 23 24 23 23 24 24
27 27 27 27 28 28 28 26 26 24 24 24 23 24 26 23 22 24 25 27 28 28 28 28 27 26 26 24 23 23 22 22 22 23 23 24 24 24 24 23 23 23 24 24
28 27 28 28 26 27 25 24 24 23 24 24 26 25 27 24 24 25 26 27 28 28 28 28 27 26 25 24 23 23 22 23 23 23 24 24 24 24 23 24 23 23 23 23
27 28 26 26 26 26 25 27 26 25 24 26 24 24 27 27 26 27 26 26 27 28 28 28 27 26 25 24 24 23 22 22 22 22 23 24 24 24 24 24 24 23 23 23
27 27 26 26 27 27 26 28 28 26 27 26 24 24 28 28 28 26 25 26 26 27 28 27 27 26 25 24 24 23 23 22 22 22 22 23 24 23 23 23 23 23 23 23
26 27 27 26 26 27 25 26 28 27 24 25 26 27 28 27 27 25 23 25 25 25 27 27 27 25 25 24 24 23 23 23 22 22 22 22 23 23 23 24 23 22 23 22
26 26 27 27 27 26 27 27 25 25 26 27 28 26 28 26 26 25 24 25 26 25 25 27 27 26 25 24 24 23 23 23 23 23 22 22 22 23 23 23 23 23 23 23
26 26 28 26 27 28 26 27 26 26 26 28 27 29 27 27 27 24 25 26 26 25 24 24 24 24 24 24 23 23 23 23 22 22 22 22 22 22 23 23 22 23 23 22
25 26 27 28 28 26 27 28 29 29 26 27 27 29 25 25 27 26 25 25 25 23 24 24 23 22 23 23 23 23 22 22 22 22 22 23 23 22 22 22 22 23 23 22
25 26 26 27 27 26 27 26 25 26 26 28 28 30 27 26 26 26 25 26 26 25 22 22 21 20 22 23 23 22 22 22 22 22 22 22 23 22 21 21 22 22 22 22
24 25 25 26 26 25 25 25 24 24 28 29 29 29 27 24 24 24 25 26 26 25 24 22 22 20 21 22 23 22 22 22 22 21 22 22 22 21 21 22 22 22 22 22
25 25 24 25 25 25 24 24 24 25 24 26 27 25 24 23 22 23 23 23 24 23 24 23 23 23 21 20 21 22 21 22 21 22 22 22 23 22 22 22 22 22 22 21
23 25 24 24 25 25 24 23 24 23 23 24 24 24 22 21 22 23 23 23 23 22 23 23 22 21 20 21 20 20 20 19 20 21 21 23 22 22 21 22 22 22 21 20
23 24 24 24 24 24 22 23 23 23 23 23 25 23 22 21 21 21 23 23 23 23 23 23 21 19 19 19 20 19 19 20 20 20 20 20 22 21 21 21 21 20 20 19
23 22 21 23 23 21 24 22 24 25 24 24 22 22 20 19 19 18 20 20 20 19 18 19 19 18 18 19 19 20 19 20 20 20 19 19 20 20 19 20 19 20 20 19
20 22 21 22 22 22 22 23 22 24 26 24 22 21 20 19 19 18 17 17 17 17 16 16 16 16 17 18 19 19 19 19 18 19 19 19 19 19 19 19 18 18 19 19
20 19 23 20 22 22 24 23 23 23 24 24 23 22 21 21 22 19 17 17 16 16 15 15 14 15 16 16 18 18 19 19 18 19 19 19 19 18 19 18 18 19 18 18
22 21 22 21 22 23 22 22 22 22 24 23 23 22 22 22 22 18 16 15 16 16 15 14 14 14 14 15 16 17 17 17 18 18 18 18 18 18 18 18 18 18 17 16
22 21 20 20 21 22 21 22 22 22 21 22 21 20 19 17 17 17 16 16 16 15 15 15 14 13 13 14 14 14 14 15 16 16 16 17 17 17 17 17 17 17 16 14
21 22 22 21 23 21 20 21 22 20 22 21 20 19 17 18 19 18 17 17 17 16 15 15 14 13 12 13 14 13 13 14 14 14 14 14 15 16 16 17 16 16 15 15
20 19 22 20 21 21 21 21 20 21 22 21 20 20 20 19 19 18 18 18 17 17 16 16 15 13 13 13 13 13 13 14 14 13 12 13 14 15 15 15 14 15 15 14
22 20 21 21 21 21 22 20 21 21 21 21 21 21 20 20 20 19 19 18 17 16 16 16 15 14 13 13 12 13 13 14 14 14 14 14 14 14 13 13 13 14 14 14
21 22 24 25 23 23 24 22 21 21 21 21 21 20 20 20 19 19 18 17 17 16 15 15 15 14 13 13 13 14 14 14 14 14 14 13 13 14 14 14 14 15 15 15

GFSCGP_925_temp_120.txt.gz
Temp
31 31 31 32 33 32 31 31 31 29 27 28 29 28 25 24 25 30 31 29 32 32 31 29 29 28 27 26 25 24 24 23 24 24 25 25 25 25 25 25 24 23 24 23
30 31 33 32 31 31 32 31 31 28 26 27 28 27 28 26 25 28 31 27 31 32 32 30 29 29 28 26 26 25 24 23 23 24 24 26 26 26 26 25 24 24 24 24
31 32 31 31 31 31 31 31 31 30 27 27 27 28 28 26 26 26 29 29 29 32 32 31 29 29 28 27 26 25 24 24 23 24 24 24 24 24 24 25 25 24 24 24
31 31 30 31 31 32 31 32 31 29 28 29 28 31 29 28 25 26 26 29 27 31 32 32 30 29 29 28 26 25 25 24 23 24 24 24 25 26 26 25 24 24 24 24
31 30 30 30 31 32 31 31 31 30 29 29 28 29 33 29 26 27 27 29 28 31 32 32 31 30 29 28 27 26 25 24 24 24 25 24 25 26 25 26 24 24 23 24
31 31 31 31 31 31 31 30 30 29 29 29 32 30 33 30 29 28 27 28 30 32 32 32 31 30 29 28 27 26 25 24 24 23 24 24 25 25 25 24 25 25 25 25
30 31 32 31 31 31 30 31 30 29 30 30 30 30 32 33 32 31 29 29 30 32 32 32 32 31 30 29 27 26 25 24 24 23 24 24 24 25 25 24 24 24 25 26
30 29 31 31 31 31 30 32 32 29 31 32 29 29 33 32 33 33 31 29 31 32 33 33 32 31 29 29 27 26 25 24 24 24 24 24 24 23 24 24 24 24 24 24
30 30 31 31 32 31 31 29 33 32 33 31 32 32 33 33 32 33 32 30 30 31 32 33 32 30 29 29 27 27 26 25 25 25 24 24 24 24 25 25 23 24 23 23
30 29 31 31 31 31 30 32 30 31 28 29 32 31 31 32 32 31 31 29 28 29 31 32 32 31 29 28 28 27 26 25 25 25 25 24 24 24 24 24 24 24 25 23
31 30 30 30 30 31 30 30 30 32 32 30 29 32 32 31 30 31 30 30 28 27 28 31 31 30 29 28 28 27 26 26 25 25 25 25 25 25 24 24 24 23 23 23
30 30 29 31 32 31 32 32 32 31 30 31 32 27 30 30 30 32 31 26 28 27 27 26 30 29 29 28 28 27 26 26 26 25 25 24 24 24 24 24 24 23 23 23
30 29 28 30 31 31 31 31 31 32 31 21 29 30 30 29 30 30 29 28 26 27 26 23 24 27 26 25 27 27 26 26 26 25 24 24 24 24 24 24 24 23 23 23
26 29 29 29 29 26 28 29 30 30 31 31 31 32 32 27 27 28 28 28 26 24 24 22 21 24 23 24 25 27 26 26 25 25 25 25 24 24 24 24 23 23 23 23
28 27 29 29 29 29 28 28 29 29 30 29 32 30 31 27 24 26 27 27 27 27 27 25 22 21 20 22 23 25 25 25 25 24 25 25 25 24 23 23 23 23 23 23
28 27 28 27 29 29 28 28 28 29 29 29 30 30 28 26 23 26 28 26 26 27 27 27 23 22 20 21 21 22 24 23 22 22 22 24 23 23 23 23 22 22 22 22
27 28 27 27 28 28 28 28 29 29 29 29 28 29 28 26 22 22 27 27 26 26 26 25 25 23 21 20 20 21 22 22 21 20 21 22 22 23 23 22 21 21 21 21
27 26 27 26 24 22 28 29 28 28 29 29 29 28 25 20 20 19 22 23 21 21 23 24 24 22 18 19 19 19 19 20 22 20 20 20 20 21 21 21 20 20 20 19
28 27 26 25 24 25 27 27 26 26 27 29 28 27 22 20 21 19 18 18 18 18 17 17 17 18 19 19 19 20 19 19 19 19 19 19 20 19 19 19 19 19 19 19
27 26 26 25 22 23 25 26 27 27 25 29 29 26 24 25 26 21 17 17 17 16 16 16 16 16 17 18 19 19 19 19 18 19 19 19 19 19 18 18 18 18 18 18
26 25 25 25 24 25 26 26 26 24 25 26 27 26 24 22 21 17 18 17 16 16 15 15 14 14 15 16 17 19 19 19 18 18 18 18 18 18 18 18 18 18 18 17
25 25 25 26 23 23 26 25 24 24 25 25 26 24 18 19 21 19 18 18 17 17 16 15 14 13 13 14 15 15 15 16 17 17 17 17 17 17 18 17 17 15 15 16
24 26 24 25 25 24 24 25 25 24 24 25 23 22 23 22 22 20 18 19 19 18 16 15 14 13 12 13 13 14 13 14 15 15 15 15 15 16 16 16 16 16 15 15
25 25 26 24 26 25 25 25 24 24 25 24 21 23 23 21 20 19 19 19 19 19 18 16 16 15 13 13 13 13 13 13 14 13 13 14 13 14 15 16 15 15 15 14
26 25 26 26 26 25 25 25 25 24 24 25 25 25 23 21 21 21 21 21 20 19 18 18 17 17 15 14 14 14 14 15 14 14 14 13 13 14 14 14 14 14 13 14
26 27 27 27 27 26 26 25 25 24 24 24 24 24 23 22 22 22 21 20 20 19 18 18 17 17 16 15 15 15 15 16 17 18 17 15 14 13 14 15 15 14 14 14

GFSCGP_925_temp_123.txt.gz
Temp
33 33 33 35 36 36 35 34 33 33 31 31 31 31 30 28 27 29 29 31 34 34 34 32 31 30 29 28 27 26 27 25 26 26 27 26 27 27 27 26 25 25 25 25
33 33 35 36 36 35 34 34 34 32 31 30 32 31 32 29 28 31 24 31 33 34 34 32 32 31 30 28 27 26 26 25 25 26 27 27 27 26 27 27 25 26 26 25
34 35 35 34 33 33 34 34 34 33 31 31 31 31 32 32 30 30 29 29 34 34 33 33 32 32 30 29 27 26 26 25 24 25 26 26 25 26 27 27 26 26 26 25
34 35 33 33 33 34 34 35 34 33 31 31 30 31 32 33 30 30 31 31 33 33 34 34 33 32 31 29 28 27 26 25 25 25 26 26 25 27 28 27 26 26 26 26
33 33 32 33 34 35 34 35 34 33 32 33 33 31 34 35 31 30 31 32 31 33 34 34 34 32 32 30 29 28 26 25 25 25 24 25 25 27 27 27 26 26 25 26
34 34 34 34 34 34 35 33 33 33 33 32 34 33 34 33 33 32 31 31 31 33 33 35 34 33 32 31 29 28 26 25 24 24 24 25 26 26 26 27 26 27 27 26
33 33 34 34 33 34 33 33 32 32 32 33 34 34 35 33 34 34 33 32 30 32 33 33 34 33 32 31 30 29 27 26 25 24 25 25 26 26 26 25 26 27 27 26
33 32 33 34 33 34 33 34 34 31 34 30 33 33 33 29 36 36 35 33 32 31 33 33 34 33 31 31 30 29 27 26 25 25 25 25 25 26 26 26 27 27 27 27
33 33 34 34 34 34 34 33 35 34 35 35 33 33 36 33 34 35 34 33 31 31 32 32 33 34 31 31 30 29 28 26 26 26 25 25 25 25 26 26 25 25 26 26
33 31 34 34 34 34 33 30 31 34 31 31 34 33 34 31 33 33 34 33 32 31 32 31 33 33 33 31 30 29 28 27 26 27 26 26 26 25 25 25 25 25 26 24
33 33 33 33 33 33 33 33 30 32 31 30 32 31 22 32 32 33 32 33 33 32 32 33 26 33 33 31 31 29 28 27 26 26 27 26 26 26 26 26 25 25 24 24
33 32 32 33 34 35 34 31 33 33 31 28 29 28 26 33 33 32 30 31 31 31 30 29 32 31 32 31 30 29 29 28 27 27 27 26 26 26 27 26 26 24 24 23
32 31 30 32 34 34 33 34 34 32 32 30 30 30 27 29 33 32 31 30 27 29 28 27 27 25 30 31 30 30 29 28 27 27 26 27 26 26 26 26 25 26 24 24
29 30 30 30 31 32 30 32 28 26 32 31 32 31 27 27 30 31 31 30 27 25 25 22 23 23 29 30 30 30 29 28 28 27 27 27 26 26 26 25 25 26 25 25
30 29 30 31 32 32 32 29 22 21 28 32 32 29 31 22 28 27 29 29 27 23 22 21 22 21 23 26 26 26 28 28 27 27 27 26 26 26 26 25 25 25 24 25
31 29 29 29 31 32 31 31 24 26 31 29 32 31 30 29 27 27 29 28 28 28 27 25 24 23 21 23 25 25 25 26 27 26 26 26 25 25 24 23 23 23 23 23
30 30 29 29 31 30 29 31 29 30 32 26 28 31 24 27 25 23 24 28 23 29 29 29 25 21 21 21 22 24 23 23 23 23 24 23 24 24 24 24 23 22 22 22
29 28 29 28 29 27 30 25 24 26 31 25 24 32 29 25 21 19 19 20 21 21 22 20 22 23 20 20 21 21 22 22 22 23 23 23 22 23 22 23 22 21 21 21
31 29 28 28 28 28 29 27 27 28 30 31 31 30 28 23 21 18 18 18 17 17 17 17 18 20 19 19 19 20 19 20 20 21 21 21 20 20 21 21 21 20 20 20
30 29 28 28 26 21 26 20 20 19 28 30 31 30 30 27 27 20 18 19 18 16 15 16 16 17 18 18 18 18 18 18 18 18 19 19 20 20 20 20 20 19 19 18
28 27 27 28 27 26 29 26 28 25 25 25 31 30 28 22 21 19 19 18 17 16 15 14 14 14 15 17 19 19 18 18 19 18 18 19 19 19 19 18 18 18 18 17
28 27 27 27 25 24 28 28 27 26 27 24 25 24 23 24 22 20 19 19 19 17 16 15 13 13 13 15 16 16 16 17 18 18 17 17 17 17 18 17 17 17 16 15
26 28 23 27 25 27 28 27 28 27 27 28 25 24 25 25 23 22 21 20 19 17 16 15 14 13 13 13 14 14 14 15 16 16 16 16 16 17 17 16 16 15 15 14
28 28 28 27 26 28 28 28 28 27 27 27 27 25 26 25 24 23 22 21 20 18 18 17 16 15 13 13 13 13 14 14 15 14 14 14 14 15 16 16 15 15 15 14
22 27 28 28 28 28 27 28 27 27 26 26 27 26 26 24 24 22 21 21 20 19 18 18 18 17 16 15 15 15 15 14 14 14 14 14 14 15 15 14 13 14 14 14
29 28 28 26 28 25 26 27 27 26 27 27 27 25 25 25 24 23 21 21 21 20 19 19 18 17 17 17 17 16 17 17 17 18 17 16 16 15 14 14 13 14 14 14